Time,TemperatureF,DewpointF,PressureIn,WindDirection,WindDirectionDegrees,WindSpeedMPH,WindSpeedGustMPH,Humidity,HourlyPrecipIn,Conditions,Clouds,dailyrainin,SoftwareType,DateUTC
2013-06-29 00:03:00,63.8,59.5,29.64,ESE,102,0.0,0.0,86,0.00,RA,,0.00,WeatherDisplay:10.37,2013-06-29 05:03:00,
2013-06-29 00:04:00,63.9,59.6,29.64,ESE,102,0.0,0.0,86,0.00,RA,,0.00,WeatherDisplay:10.37,2013-06-29 05:04:00,
2013-06-29 00:08:00,63.7,59.4,29.64,NNW,347,0.1,1.2,86,0.00,RA,,0.00,WeatherDisplay:10.37,2013-06-29 05:08:00,
2013-06-29 00:09:00,63.8,59.5,29.64,NNW,347,0.0,0.0,86,0.00,RA,,0.00,WeatherDisplay:10.37,2013-06-29 05:09:00,
2013-06-29 00:13:00,63.8,59.5,29.64,NW,323,0.7,1.2,86,0.00,CLR,,0.00,WeatherDisplay:10.37,2013-06-29 05:13:00,
2013-06-29 00:14:00,63.7,59.4,29.64,NW,323,0.0,2.3,86,0.00,CLR,,0.00,WeatherDisplay:10.37,2013-06-29 05:14:00,
2013-06-29 00:18:00,63.8,59.5,29.64,North,354,0.8,1.6,86,0.00,CLR,,0.00,WeatherDisplay:10.37,2013-06-29 05:18:00,
2013-06-29 00:19:00,63.7,59.4,29.64,NNE,21,0.6,2.3,86,0.00,CLR,,0.00,WeatherDisplay:10.37,2013-06-29 05:19:00,
2013-06-29 00:23:00,63.8,59.5,29.64,West,278,0.6,2.3,86,0.00,CLR,,0.00,WeatherDisplay:10.37,2013-06-29 05:23:00,
2013-06-29 00:24:00,63.8,59.5,29.64,West,278,0.1,2.3,86,0.00,CLR,,0.00,WeatherDisplay:10.37,2013-06-29 05:24:00,
2013-06-29 00:28:00,63.8,59.5,29.64,NW,304,0.0,0.0,86,0.00,CLR,,0.00,WeatherDisplay:10.37,2013-06-29 05:28:00,
2013-06-29 00:29:00,63.8,59.5,29.64,NW,304,0.0,0.0,86,0.00,CLR,,0.00,WeatherDisplay:10.37,2013-06-29 05:29:00,
2013-06-29 00:34:00,63.9,59.6,29.64,NNW,343,0.9,3.5,86,0.00,RA,,0.01,WeatherDisplay:10.37,2013-06-29 05:34:00,
2013-06-29 00:35:00,63.8,59.5,29.63,NW,309,1.5,2.3,86,0.00,RA,,0.01,WeatherDisplay:10.37,2013-06-29 05:35:00,
2013-06-29 00:39:00,63.9,59.6,29.63,NW,312,1.7,3.5,86,0.00,RA,,0.01,WeatherDisplay:10.37,2013-06-29 05:39:00,
2013-06-29 00:40:00,63.8,59.5,29.63,North,354,1.4,3.5,86,0.00,,,0.01,WeatherDisplay:10.37,2013-06-29 05:40:00,
2013-06-29 00:44:00,63.9,59.6,29.63,North,4,1.9,2.4,86,0.00,CLR,,0.01,WeatherDisplay:10.37,2013-06-29 05:44:00,
2013-06-29 00:45:00,63.7,59.4,29.63,WNW,288,1.8,3.5,86,0.00,CLR,,0.01,WeatherDisplay:10.37,2013-06-29 05:45:00,
2013-06-29 00:49:00,63.7,59.4,29.63,NNE,14,0.2,1.4,86,0.00,CLR,,0.01,WeatherDisplay:10.37,2013-06-29 05:49:00,
2013-06-29 00:50:00,63.8,59.5,29.63,NNE,13,2.3,4.2,86,0.00,CLR,,0.01,WeatherDisplay:10.37,2013-06-29 05:50:00,
2013-06-29 00:54:00,63.8,59.5,29.63,NNW,347,1.2,1.7,86,0.00,CLR,,0.01,WeatherDisplay:10.37,2013-06-29 05:54:00,
2013-06-29 00:55:00,63.8,59.5,29.63,North,4,1.4,1.4,86,0.00,CLR,,0.01,WeatherDisplay:10.37,2013-06-29 05:55:00,
2013-06-29 00:59:00,63.8,59.5,29.63,ENE,64,0.0,1.2,86,0.00,CLR,,0.01,WeatherDisplay:10.37,2013-06-29 05:59:00,
2013-06-29 01:00:00,63.7,59.4,29.63,ENE,64,0.0,1.2,86,0.00,CLR,,0.01,WeatherDisplay:10.37,2013-06-29 06:00:00,
2013-06-29 01:04:00,63.8,59.9,29.63,NNW,339,2.3,4.6,87,0.01,CLR,,0.01,WeatherDisplay:10.37,2013-06-29 06:04:00,
2013-06-29 01:05:00,63.8,59.9,29.63,WSW,248,1.9,4.6,87,0.01,CLR,,0.01,WeatherDisplay:10.37,2013-06-29 06:05:00,
2013-06-29 01:06:00,63.9,60.0,29.63,NW,318,1.9,5.4,87,0.01,CLR,,0.01,WeatherDisplay:10.37,2013-06-29 06:06:00,
2013-06-29 01:09:00,63.8,59.9,29.63,NNW,333,2.0,4.6,87,0.01,CLR,,0.01,WeatherDisplay:10.37,2013-06-29 06:09:00,
2013-06-29 01:10:00,63.7,59.8,29.63,West,280,1.8,3.5,87,0.01,CLR,,0.01,WeatherDisplay:10.37,2013-06-29 06:10:00,
2013-06-29 01:11:00,63.7,59.8,29.63,West,280,0.2,3.5,87,0.01,CLR,,0.01,WeatherDisplay:10.37,2013-06-29 06:11:00,
2013-06-29 01:14:00,63.8,59.9,29.63,North,349,1.9,4.4,87,0.01,CLR,,0.01,WeatherDisplay:10.37,2013-06-29 06:14:00,
2013-06-29 01:15:00,63.8,59.9,29.63,NNW,343,2.7,4.6,87,0.01,CLR,,0.01,WeatherDisplay:10.37,2013-06-29 06:15:00,
2013-06-29 01:16:00,63.8,59.9,29.63,NNE,31,2.7,4.6,87,0.01,CLR,,0.01,WeatherDisplay:10.37,2013-06-29 06:16:00,
2013-06-29 01:19:00,63.8,59.9,29.63,North,354,1.5,3.5,87,0.01,CLR,,0.01,WeatherDisplay:10.37,2013-06-29 06:19:00,
2013-06-29 01:20:00,63.8,59.9,29.63,North,354,0.3,2.3,87,0.01,CLR,,0.01,WeatherDisplay:10.37,2013-06-29 06:20:00,
2013-06-29 01:21:00,63.8,59.9,29.63,NNW,335,0.1,2.3,87,0.01,CLR,,0.01,WeatherDisplay:10.37,2013-06-29 06:21:00,
2013-06-29 01:25:00,63.8,59.9,29.63,NNW,347,2.9,4.6,87,0.01,CLR,,0.01,WeatherDisplay:10.37,2013-06-29 06:25:00,
2013-06-29 01:26:00,63.9,60.0,29.63,ENE,58,3.2,4.6,87,0.01,CLR,,0.01,WeatherDisplay:10.37,2013-06-29 06:26:00,
2013-06-29 01:30:00,63.9,60.0,29.63,North,352,1.4,2.3,87,0.00,CLR,,0.01,WeatherDisplay:10.37,2013-06-29 06:30:00,
2013-06-29 01:31:00,63.8,59.9,29.63,NE,47,0.3,2.3,87,0.00,CLR,,0.01,WeatherDisplay:10.37,2013-06-29 06:31:00,
2013-06-29 01:36:00,63.9,60.0,29.63,North,8,3.7,5.8,87,0.00,CLR,,0.01,WeatherDisplay:10.37,2013-06-29 06:36:00,
2013-06-29 01:37:00,63.9,60.0,29.63,NNW,330,2.3,5.8,87,0.00,CLR,,0.01,WeatherDisplay:10.37,2013-06-29 06:37:00,
2013-06-29 01:41:00,63.9,60.0,29.63,NNW,346,1.0,2.3,87,0.00,CLR,,0.01,WeatherDisplay:10.37,2013-06-29 06:41:00,
2013-06-29 01:42:00,63.9,60.0,29.63,North,357,1.1,2.4,87,0.00,CLR,,0.01,WeatherDisplay:10.37,2013-06-29 06:42:00,
2013-06-29 01:46:00,63.9,60.0,29.63,NW,306,0.4,2.1,87,0.00,CLR,,0.01,WeatherDisplay:10.37,2013-06-29 06:46:00,
2013-06-29 01:47:00,63.9,60.0,29.63,NNW,336,2.3,2.9,87,0.00,CLR,,0.01,WeatherDisplay:10.37,2013-06-29 06:47:00,
2013-06-29 01:51:00,64.0,60.1,29.63,WNW,291,2.0,3.5,87,0.00,CLR,,0.01,WeatherDisplay:10.37,2013-06-29 06:51:00,
2013-06-29 01:52:00,63.9,60.0,29.63,North,356,1.4,3.5,87,0.00,CLR,,0.01,WeatherDisplay:10.37,2013-06-29 06:52:00,
2013-06-29 01:56:00,63.9,60.0,29.63,NNW,333,3.6,5.8,87,0.00,CLR,,0.01,WeatherDisplay:10.37,2013-06-29 06:56:00,
2013-06-29 01:57:00,63.9,60.0,29.63,NNW,329,2.6,5.8,87,0.00,CLR,,0.01,WeatherDisplay:10.37,2013-06-29 06:57:00,
2013-06-29 01:58:00,63.8,59.9,29.63,North,357,3.4,5.8,87,0.00,CLR,,0.01,WeatherDisplay:10.37,2013-06-29 06:58:00,
2013-06-29 02:01:00,64.0,60.1,29.63,WNW,288,0.0,1.2,87,0.00,CLR,,0.01,WeatherDisplay:10.37,2013-06-29 07:01:00,
2013-06-29 02:02:00,63.8,59.9,29.63,NW,322,0.8,3.5,87,0.00,CLR,,0.01,WeatherDisplay:10.37,2013-06-29 07:02:00,
2013-06-29 02:03:00,64.0,60.1,29.63,NE,38,2.0,3.5,87,0.00,CLR,,0.01,WeatherDisplay:10.37,2013-06-29 07:03:00,
2013-06-29 02:06:00,64.0,60.1,29.63,West,263,3.1,5.8,87,0.02,RA,,0.04,WeatherDisplay:10.37,2013-06-29 07:06:00,
2013-06-29 02:07:00,64.0,60.1,29.63,NE,51,2.9,5.8,87,0.02,RA,,0.05,WeatherDisplay:10.37,2013-06-29 07:07:00,
2013-06-29 02:08:00,63.9,60.0,29.63,WNW,291,3.6,8.5,87,0.06,RA,,0.08,WeatherDisplay:10.37,2013-06-29 07:08:00,
2013-06-29 02:11:00,63.9,60.0,29.63,WNW,302,3.3,3.6,87,0.10,RA,,0.12,WeatherDisplay:10.37,2013-06-29 07:11:00,
2013-06-29 02:12:00,63.9,60.0,29.63,North,359,3.6,3.7,87,0.10,RA,,0.12,WeatherDisplay:10.37,2013-06-29 07:12:00,
2013-06-29 02:13:00,63.8,59.9,29.63,North,360,3.9,6.9,87,0.11,RA,,0.12,WeatherDisplay:10.37,2013-06-29 07:13:00,
2013-06-29 02:17:00,63.7,59.8,29.63,NNW,343,2.2,4.6,87,0.12,RA,,0.13,WeatherDisplay:10.37,2013-06-29 07:17:00,
2013-06-29 02:18:00,63.4,59.8,29.63,NNW,330,1.9,3.5,88,0.12,RA,,0.13,WeatherDisplay:10.37,2013-06-29 07:18:00,
2013-06-29 02:22:00,63.5,59.9,29.63,NE,47,2.3,4.6,88,0.12,RA,,0.13,WeatherDisplay:10.37,2013-06-29 07:22:00,
2013-06-29 02:23:00,63.5,59.9,29.63,NNW,329,1.4,3.5,88,0.12,RA,,0.13,WeatherDisplay:10.37,2013-06-29 07:23:00,
2013-06-29 02:27:00,63.2,59.6,29.63,North,8,1.0,3.4,88,0.12,CLR,,0.13,WeatherDisplay:10.37,2013-06-29 07:27:00,
2013-06-29 02:28:00,63.4,59.8,29.63,North,11,1.2,3.5,88,0.12,CLR,,0.13,WeatherDisplay:10.37,2013-06-29 07:28:00,
2013-06-29 02:32:00,63.3,59.7,29.63,NE,51,2.0,3.5,88,0.13,RA,,0.14,WeatherDisplay:10.37,2013-06-29 07:32:00,
2013-06-29 02:33:00,63.4,59.8,29.63,NNE,30,1.9,4.6,88,0.13,RA,,0.14,WeatherDisplay:10.37,2013-06-29 07:33:00,
2013-06-29 02:37:00,63.2,59.6,29.63,NNE,18,2.3,2.4,88,0.13,RA,,0.14,WeatherDisplay:10.37,2013-06-29 07:37:00,
2013-06-29 02:38:00,63.2,59.6,29.63,ENE,65,2.3,2.3,88,0.13,RA,,0.14,WeatherDisplay:10.37,2013-06-29 07:38:00,
2013-06-29 02:39:00,63.3,59.7,29.63,NW,308,1.8,4.6,88,0.13,RA,,0.14,WeatherDisplay:10.37,2013-06-29 07:39:00,
2013-06-29 02:43:00,63.3,59.7,29.63,NNW,346,0.9,2.3,88,0.13,,,0.14,WeatherDisplay:10.37,2013-06-29 07:43:00,
2013-06-29 02:44:00,63.3,59.7,29.63,WNW,302,0.1,1.2,88,0.13,CLR,,0.14,WeatherDisplay:10.37,2013-06-29 07:44:00,
2013-06-29 02:48:00,63.2,59.6,29.63,North,359,1.2,1.7,88,0.13,CLR,,0.14,WeatherDisplay:10.37,2013-06-29 07:48:00,
2013-06-29 02:49:00,63.1,59.5,29.63,NNW,340,1.7,2.3,88,0.13,CLR,,0.14,WeatherDisplay:10.37,2013-06-29 07:49:00,
2013-06-29 02:53:00,63.2,59.6,29.63,NNW,339,0.4,2.3,88,0.13,CLR,,0.14,WeatherDisplay:10.37,2013-06-29 07:53:00,
2013-06-29 02:54:00,63.2,59.6,29.63,NW,322,1.8,2.6,88,0.13,CLR,,0.14,WeatherDisplay:10.37,2013-06-29 07:54:00,
2013-06-29 02:58:00,63.1,59.5,29.63,NW,323,0.0,1.2,88,0.13,CLR,,0.14,WeatherDisplay:10.37,2013-06-29 07:58:00,
2013-06-29 02:59:00,63.1,59.5,29.63,NNE,23,2.3,4.6,88,0.13,CLR,,0.14,WeatherDisplay:10.37,2013-06-29 07:59:00,
2013-06-29 03:03:00,63.1,59.8,29.63,NW,318,1.0,2.3,89,0.13,CLR,,0.14,WeatherDisplay:10.37,2013-06-29 08:03:00,
2013-06-29 03:04:00,63.1,59.8,29.63,NW,318,0.2,2.3,89,0.13,CLR,,0.14,WeatherDisplay:10.37,2013-06-29 08:04:00,
2013-06-29 03:05:00,63.0,59.7,29.63,NE,47,1.1,1.2,89,0.13,CLR,,0.14,WeatherDisplay:10.37,2013-06-29 08:05:00,
2013-06-29 03:08:00,63.0,59.7,29.63,NNE,30,3.2,5.8,89,0.07,CLR,,0.14,WeatherDisplay:10.37,2013-06-29 08:08:00,
2013-06-29 03:09:00,63.0,59.7,29.63,North,357,4.1,5.8,89,0.07,CLR,,0.14,WeatherDisplay:10.37,2013-06-29 08:09:00,
2013-06-29 03:10:00,63.1,59.8,29.63,NW,316,2.5,4.6,89,0.05,CLR,,0.14,WeatherDisplay:10.37,2013-06-29 08:10:00,
2013-06-29 03:13:00,63.0,59.7,29.63,North,11,0.1,2.3,89,0.02,CLR,,0.14,WeatherDisplay:10.37,2013-06-29 08:13:00,
2013-06-29 03:14:00,63.0,59.7,29.63,North,360,1.1,4.2,89,0.02,CLR,,0.14,WeatherDisplay:10.37,2013-06-29 08:14:00,
2013-06-29 03:15:00,63.0,59.7,29.63,WNW,291,1.8,4.6,89,0.01,CLR,,0.14,WeatherDisplay:10.37,2013-06-29 08:15:00,
2013-06-29 03:18:00,63.0,59.7,29.63,NW,309,3.1,3.8,89,0.01,CLR,,0.14,WeatherDisplay:10.37,2013-06-29 08:18:00,
2013-06-29 03:19:00,63.0,59.7,29.63,NW,315,2.7,5.8,89,0.01,CLR,,0.14,WeatherDisplay:10.37,2013-06-29 08:19:00,
2013-06-29 03:20:00,62.9,59.6,29.63,North,354,2.7,3.5,89,0.01,CLR,,0.14,WeatherDisplay:10.37,2013-06-29 08:20:00,
2013-06-29 03:23:00,62.8,59.5,29.63,NE,45,2.6,5.8,89,0.01,CLR,,0.14,WeatherDisplay:10.37,2013-06-29 08:23:00,
2013-06-29 03:24:00,62.8,59.5,29.63,NW,322,1.2,3.5,89,0.01,CLR,,0.14,WeatherDisplay:10.37,2013-06-29 08:24:00,
2013-06-29 03:25:00,62.9,59.6,29.63,NNW,340,1.2,2.3,89,0.01,CLR,,0.14,WeatherDisplay:10.37,2013-06-29 08:25:00,
2013-06-29 03:26:00,62.8,59.5,29.63,NNW,336,1.6,2.3,89,0.01,CLR,,0.14,WeatherDisplay:10.37,2013-06-29 08:26:00,
2013-06-29 03:29:00,62.8,59.5,29.63,NNW,339,1.3,2.3,89,0.01,CLR,,0.14,WeatherDisplay:10.37,2013-06-29 08:29:00,
2013-06-29 03:30:00,62.7,59.4,29.63,NNW,333,2.5,3.5,89,0.01,CLR,,0.14,WeatherDisplay:10.37,2013-06-29 08:30:00,
2013-06-29 03:31:00,62.8,59.5,29.63,NNW,330,2.3,3.5,89,0.01,CLR,,0.14,WeatherDisplay:10.37,2013-06-29 08:31:00,
2013-06-29 03:34:00,62.7,59.4,29.63,North,6,3.4,3.5,89,0.00,CLR,,0.14,WeatherDisplay:10.37,2013-06-29 08:34:00,
2013-06-29 03:36:00,62.7,59.4,29.63,South,186,1.5,2.3,89,0.00,CLR,,0.14,WeatherDisplay:10.37,2013-06-29 08:36:00,
2013-06-29 03:39:00,62.7,59.4,29.63,NNW,340,1.7,5.8,89,0.00,CLR,,0.14,WeatherDisplay:10.37,2013-06-29 08:39:00,
2013-06-29 03:40:00,62.7,59.4,29.63,NNW,343,1.4,3.5,89,0.00,CLR,,0.14,WeatherDisplay:10.37,2013-06-29 08:40:00,
2013-06-29 03:41:00,62.6,59.3,29.63,WNW,295,1.6,3.5,89,0.00,CLR,,0.14,WeatherDisplay:10.37,2013-06-29 08:41:00,
2013-06-29 03:44:00,62.6,59.3,29.63,North,349,2.1,3.5,89,0.00,CLR,,0.14,WeatherDisplay:10.37,2013-06-29 08:44:00,
2013-06-29 03:46:00,62.6,59.3,29.63,North,1,0.6,4.6,89,0.00,CLR,,0.14,WeatherDisplay:10.37,2013-06-29 08:46:00,
2013-06-29 03:49:00,62.6,59.3,29.63,NE,38,1.2,3.5,89,0.00,CLR,,0.14,WeatherDisplay:10.37,2013-06-29 08:49:00,
2013-06-29 03:51:00,62.6,59.3,29.63,NNE,24,0.9,2.3,89,0.00,CLR,,0.14,WeatherDisplay:10.37,2013-06-29 08:51:00,
2013-06-29 03:52:00,62.5,59.2,29.63,NE,41,0.6,1.2,89,0.00,CLR,,0.14,WeatherDisplay:10.37,2013-06-29 08:52:00,
2013-06-29 03:54:00,62.6,59.3,29.63,NNW,340,2.9,3.5,89,0.00,CLR,,0.14,WeatherDisplay:10.37,2013-06-29 08:54:00,
2013-06-29 03:56:00,62.5,59.2,29.63,ENE,72,2.3,4.6,89,0.00,CLR,,0.14,WeatherDisplay:10.37,2013-06-29 08:56:00,
2013-06-29 03:57:00,62.5,59.2,29.63,ENE,75,1.3,4.6,89,0.00,CLR,,0.14,WeatherDisplay:10.37,2013-06-29 08:57:00,
2013-06-29 03:58:00,62.6,59.3,29.63,WSW,253,0.4,2.3,89,0.00,CLR,,0.14,WeatherDisplay:10.37,2013-06-29 08:58:00,
2013-06-29 03:59:00,62.6,59.3,29.63,NE,44,2.2,2.3,89,0.00,CLR,,0.14,WeatherDisplay:10.37,2013-06-29 08:59:00,
2013-06-29 04:01:00,62.5,59.2,29.63,North,1,2.1,3.5,89,0.00,CLR,,0.14,WeatherDisplay:10.37,2013-06-29 09:01:00,
2013-06-29 04:02:00,62.4,59.1,29.63,NW,326,1.4,3.5,89,0.00,CLR,,0.14,WeatherDisplay:10.37,2013-06-29 09:02:00,
2013-06-29 04:03:00,62.4,59.1,29.63,North,7,2.4,3.5,89,0.00,CLR,,0.14,WeatherDisplay:10.37,2013-06-29 09:03:00,
2013-06-29 04:04:00,62.6,59.3,29.63,North,11,2.0,4.5,89,0.00,CLR,,0.14,WeatherDisplay:10.37,2013-06-29 09:04:00,
2013-06-29 04:06:00,62.4,59.1,29.63,East,86,2.1,4.1,89,0.00,CLR,,0.14,WeatherDisplay:10.37,2013-06-29 09:06:00,
2013-06-29 04:07:00,62.5,59.2,29.63,NE,35,2.3,3.5,89,0.00,CLR,,0.14,WeatherDisplay:10.37,2013-06-29 09:07:00,
2013-06-29 04:09:00,62.5,59.2,29.63,NNW,342,1.2,2.3,89,0.00,CLR,,0.14,WeatherDisplay:10.37,2013-06-29 09:09:00,
2013-06-29 04:12:00,62.5,59.2,29.63,North,3,1.1,3.5,89,0.00,CLR,,0.14,WeatherDisplay:10.37,2013-06-29 09:12:00,
2013-06-29 04:14:00,62.5,59.2,29.63,NNW,337,1.4,2.9,89,0.00,CLR,,0.14,WeatherDisplay:10.37,2013-06-29 09:14:00,
2013-06-29 04:17:00,62.4,59.1,29.63,North,0,2.9,3.5,89,0.00,CLR,,0.14,WeatherDisplay:10.37,2013-06-29 09:17:00,
2013-06-29 04:19:00,62.4,59.1,29.64,NW,308,0.6,1.3,89,0.00,CLR,,0.14,WeatherDisplay:10.37,2013-06-29 09:19:00,
2013-06-29 04:20:00,62.5,59.2,29.64,NNE,31,1.2,3.2,89,0.00,CLR,,0.14,WeatherDisplay:10.37,2013-06-29 09:20:00,
2013-06-29 04:22:00,62.4,59.1,29.64,North,11,0.2,2.3,89,0.00,CLR,,0.14,WeatherDisplay:10.37,2013-06-29 09:22:00,
2013-06-29 04:24:00,62.4,59.1,29.64,NE,40,0.4,1.2,89,0.00,CLR,,0.14,WeatherDisplay:10.37,2013-06-29 09:24:00,
2013-06-29 04:25:00,62.4,59.1,29.64,NE,37,0.5,1.2,89,0.00,CLR,,0.14,WeatherDisplay:10.37,2013-06-29 09:25:00,
2013-06-29 04:27:00,62.4,59.1,29.64,East,79,2.6,4.6,89,0.00,CLR,,0.14,WeatherDisplay:10.37,2013-06-29 09:27:00,
2013-06-29 04:28:00,62.4,59.1,29.64,NW,313,1.1,2.3,89,0.00,CLR,,0.14,WeatherDisplay:10.37,2013-06-29 09:28:00,
2013-06-29 04:30:00,62.2,58.9,29.64,NE,52,2.0,2.3,89,0.00,CLR,,0.14,WeatherDisplay:10.37,2013-06-29 09:30:00,
2013-06-29 04:32:00,62.4,59.1,29.64,NNW,343,1.4,4.6,89,0.00,CLR,,0.14,WeatherDisplay:10.37,2013-06-29 09:32:00,
2013-06-29 04:33:00,62.3,59.0,29.64,North,356,2.1,4.6,89,0.00,CLR,,0.14,WeatherDisplay:10.37,2013-06-29 09:33:00,
2013-06-29 04:35:00,62.3,59.0,29.64,North,350,0.7,2.3,89,0.00,CLR,,0.14,WeatherDisplay:10.37,2013-06-29 09:35:00,
2013-06-29 04:37:00,62.3,59.0,29.64,WNW,296,2.3,4.6,89,0.00,CLR,,0.14,WeatherDisplay:10.37,2013-06-29 09:37:00,
2013-06-29 04:38:00,62.3,59.0,29.64,WSW,243,1.5,3.5,89,0.00,CLR,,0.14,WeatherDisplay:10.37,2013-06-29 09:38:00,
2013-06-29 04:40:00,62.3,59.0,29.64,NNE,16,1.4,1.6,89,0.00,CLR,,0.14,WeatherDisplay:10.37,2013-06-29 09:40:00,
2013-06-29 04:42:00,62.3,59.0,29.64,NNW,333,2.5,4.6,89,0.00,CLR,,0.14,WeatherDisplay:10.37,2013-06-29 09:42:00,
2013-06-29 04:43:00,62.1,58.8,29.64,NNW,337,1.8,4.6,89,0.00,CLR,,0.14,WeatherDisplay:10.37,2013-06-29 09:43:00,
2013-06-29 04:45:00,62.3,59.3,29.64,NNW,335,1.8,4.6,90,0.00,CLR,,0.14,WeatherDisplay:10.37,2013-06-29 09:45:00,
2013-06-29 04:46:00,62.2,59.2,29.64,NW,320,2.4,3.5,90,0.00,CLR,,0.14,WeatherDisplay:10.37,2013-06-29 09:46:00,
2013-06-29 04:48:00,62.3,59.3,29.64,North,349,1.1,3.0,90,0.00,CLR,,0.14,WeatherDisplay:10.37,2013-06-29 09:48:00,
2013-06-29 04:50:00,62.1,59.1,29.64,NE,54,2.0,3.5,90,0.00,CLR,,0.14,WeatherDisplay:10.37,2013-06-29 09:50:00,
2013-06-29 04:51:00,62.2,59.2,29.64,NE,54,0.2,3.5,90,0.00,CLR,,0.14,WeatherDisplay:10.37,2013-06-29 09:51:00,
2013-06-29 04:53:00,62.3,59.3,29.64,North,360,2.9,5.1,90,0.00,CLR,,0.14,WeatherDisplay:10.37,2013-06-29 09:53:00,
2013-06-29 04:56:00,62.2,59.2,29.64,West,281,0.7,2.3,90,0.00,CLR,,0.14,WeatherDisplay:10.37,2013-06-29 09:56:00,
2013-06-29 04:58:00,62.3,59.3,29.64,NW,315,0.9,4.6,90,0.00,CLR,,0.14,WeatherDisplay:10.37,2013-06-29 09:58:00,
2013-06-29 05:01:00,62.3,59.3,29.64,North,1,2.6,5.8,90,0.00,CLR,,0.14,WeatherDisplay:10.37,2013-06-29 10:01:00,
2013-06-29 05:03:00,62.3,59.3,29.65,North,353,2.8,4.6,90,0.00,CLR,,0.14,WeatherDisplay:10.37,2013-06-29 10:03:00,
2013-06-29 05:04:00,62.1,59.1,29.65,WNW,294,3.2,4.6,90,0.00,CLR,,0.14,WeatherDisplay:10.37,2013-06-29 10:04:00,
2013-06-29 05:06:00,62.3,59.3,29.65,North,350,2.3,3.5,90,0.00,CLR,,0.14,WeatherDisplay:10.37,2013-06-29 10:06:00,
2013-06-29 05:08:00,62.2,59.2,29.65,NE,47,1.6,4.0,90,0.00,CLR,,0.14,WeatherDisplay:10.37,2013-06-29 10:08:00,
2013-06-29 05:09:00,62.3,59.3,29.65,NE,54,2.5,2.5,90,0.00,CLR,,0.14,WeatherDisplay:10.37,2013-06-29 10:09:00,
2013-06-29 05:11:00,62.2,59.2,29.65,North,1,3.8,5.8,90,0.00,CLR,,0.14,WeatherDisplay:10.37,2013-06-29 10:11:00,
2013-06-29 05:13:00,62.2,59.2,29.65,WNW,298,1.0,2.3,90,0.00,CLR,,0.14,WeatherDisplay:10.37,2013-06-29 10:13:00,
2013-06-29 05:14:00,62.2,59.2,29.65,NW,311,0.7,2.3,90,0.00,CLR,,0.14,WeatherDisplay:10.37,2013-06-29 10:14:00,
2013-06-29 05:16:00,62.3,59.3,29.65,NW,319,3.6,4.6,90,0.00,CLR,,0.14,WeatherDisplay:10.37,2013-06-29 10:16:00,
2013-06-29 05:19:00,62.2,59.2,29.65,NE,35,0.9,4.6,90,0.00,CLR,,0.14,WeatherDisplay:10.37,2013-06-29 10:19:00,
2013-06-29 05:20:00,62.3,59.3,29.65,NE,42,3.2,5.0,90,0.00,CLR,,0.14,WeatherDisplay:10.37,2013-06-29 10:20:00,
2013-06-29 05:21:00,62.3,59.3,29.65,NNW,340,0.5,4.6,90,0.00,CLR,,0.14,WeatherDisplay:10.37,2013-06-29 10:21:00,
2013-06-29 05:24:00,62.2,59.2,29.65,North,352,2.1,5.8,90,0.00,CLR,,0.14,WeatherDisplay:10.37,2013-06-29 10:24:00,
2013-06-29 05:25:00,62.2,59.2,29.65,NNE,13,4.6,6.9,90,0.00,CLR,,0.14,WeatherDisplay:10.37,2013-06-29 10:25:00,
2013-06-29 05:26:00,62.2,59.2,29.65,West,281,2.4,5.8,90,0.00,CLR,,0.14,WeatherDisplay:10.37,2013-06-29 10:26:00,
2013-06-29 05:27:00,62.3,59.3,29.65,NW,309,1.4,5.8,90,0.00,CLR,,0.14,WeatherDisplay:10.37,2013-06-29 10:27:00,
2013-06-29 05:29:00,62.3,59.3,29.65,NNE,13,3.5,5.8,90,0.00,CLR,,0.14,WeatherDisplay:10.37,2013-06-29 10:29:00,
2013-06-29 05:30:00,62.2,59.2,29.65,North,360,2.5,4.6,90,0.00,CLR,,0.14,WeatherDisplay:10.37,2013-06-29 10:30:00,
2013-06-29 05:31:00,62.3,59.3,29.65,North,360,2.1,4.6,90,0.00,CLR,,0.14,WeatherDisplay:10.37,2013-06-29 10:31:00,
2013-06-29 05:32:00,62.3,59.3,29.65,NNE,24,2.4,4.6,90,0.00,CLR,,0.14,WeatherDisplay:10.37,2013-06-29 10:32:00,
2013-06-29 05:34:00,62.2,59.2,29.65,North,354,2.9,4.6,90,0.00,CLR,,0.14,WeatherDisplay:10.37,2013-06-29 10:34:00,
2013-06-29 05:36:00,62.2,59.2,29.65,North,359,2.2,4.6,90,0.00,CLR,,0.14,WeatherDisplay:10.37,2013-06-29 10:36:00,
2013-06-29 05:37:00,62.1,59.1,29.65,WNW,289,1.8,4.6,90,0.00,CLR,,0.14,WeatherDisplay:10.37,2013-06-29 10:37:00,
2013-06-29 05:39:00,62.3,59.3,29.65,NNE,14,0.2,2.3,90,0.00,CLR,,0.14,WeatherDisplay:10.37,2013-06-29 10:39:00,
2013-06-29 05:41:00,62.2,59.2,29.65,NNE,13,1.2,5.8,90,0.00,CLR,,0.14,WeatherDisplay:10.37,2013-06-29 10:41:00,
2013-06-29 05:42:00,62.2,59.2,29.65,North,10,2.3,5.8,90,0.00,CLR,,0.14,WeatherDisplay:10.37,2013-06-29 10:42:00,
2013-06-29 05:44:00,62.2,59.2,29.65,North,7,1.6,3.5,90,0.00,CLR,,0.14,WeatherDisplay:10.37,2013-06-29 10:44:00,
2013-06-29 05:46:00,62.2,59.2,29.65,NW,318,1.8,5.8,90,0.00,CLR,,0.14,WeatherDisplay:10.37,2013-06-29 10:46:00,
2013-06-29 05:47:00,62.2,59.2,29.65,NW,322,0.8,5.8,90,0.00,CLR,,0.14,WeatherDisplay:10.37,2013-06-29 10:47:00,
2013-06-29 05:49:00,62.1,59.1,29.65,NE,47,3.4,4.6,90,0.00,CLR,,0.14,WeatherDisplay:10.37,2013-06-29 10:49:00,
2013-06-29 05:50:00,62.1,59.1,29.65,NNE,28,3.5,4.6,90,0.00,CLR,,0.14,WeatherDisplay:10.37,2013-06-29 10:50:00,
2013-06-29 05:51:00,62.2,59.2,29.65,North,349,2.9,4.6,90,0.00,CLR,,0.14,WeatherDisplay:10.37,2013-06-29 10:51:00,
2013-06-29 05:52:00,62.3,59.3,29.65,North,8,1.8,2.3,90,0.00,CLR,,0.14,WeatherDisplay:10.37,2013-06-29 10:52:00,
2013-06-29 05:55:00,62.2,59.2,29.65,NE,44,1.9,3.5,90,0.00,CLR,,0.14,WeatherDisplay:10.37,2013-06-29 10:55:00,
2013-06-29 05:57:00,62.3,59.3,29.65,ESE,107,4.6,6.9,90,0.00,CLR,,0.14,WeatherDisplay:10.37,2013-06-29 10:57:00,
2013-06-29 05:58:00,62.3,59.3,29.65,North,7,4.0,5.8,90,0.00,CLR,,0.14,WeatherDisplay:10.37,2013-06-29 10:58:00,
2013-06-29 06:00:00,62.2,59.2,29.65,NNE,16,0.2,3.5,90,0.00,CLR,,0.14,WeatherDisplay:10.37,2013-06-29 11:00:00,
2013-06-29 06:02:00,62.2,59.2,29.65,ENE,65,0.5,1.2,90,0.00,CLR,,0.14,WeatherDisplay:10.37,2013-06-29 11:02:00,
2013-06-29 06:03:00,62.2,59.2,29.65,NE,56,2.7,4.6,90,0.00,CLR,,0.14,WeatherDisplay:10.37,2013-06-29 11:03:00,
2013-06-29 06:05:00,62.3,59.3,29.65,WNW,288,1.5,4.6,90,0.00,CLR,,0.14,WeatherDisplay:10.37,2013-06-29 11:05:00,
2013-06-29 06:06:00,62.2,59.2,29.65,NNW,335,1.7,4.6,90,0.00,CLR,,0.14,WeatherDisplay:10.37,2013-06-29 11:06:00,
2013-06-29 06:07:00,62.3,59.3,29.65,North,8,1.3,3.5,90,0.00,CLR,,0.14,WeatherDisplay:10.37,2013-06-29 11:07:00,
2013-06-29 06:08:00,62.3,59.3,29.65,WNW,296,1.2,3.5,90,0.00,CLR,,0.14,WeatherDisplay:10.37,2013-06-29 11:08:00,
2013-06-29 06:11:00,62.3,59.3,29.65,ENE,75,2.3,4.6,90,0.00,CLR,,0.14,WeatherDisplay:10.37,2013-06-29 11:11:00,
2013-06-29 06:12:00,62.3,59.3,29.66,North,3,2.4,6.3,90,0.00,CLR,,0.14,WeatherDisplay:10.37,2013-06-29 11:12:00,
2013-06-29 06:13:00,62.2,59.2,29.66,NW,325,3.7,5.0,90,0.00,CLR,,0.14,WeatherDisplay:10.37,2013-06-29 11:13:00,
2013-06-29 06:16:00,62.3,59.3,29.65,North,1,2.3,4.6,90,0.00,CLR,,0.14,WeatherDisplay:10.37,2013-06-29 11:16:00,
2013-06-29 06:17:00,62.3,59.3,29.65,East,80,2.8,5.8,90,0.00,CLR,,0.14,WeatherDisplay:10.37,2013-06-29 11:17:00,
2013-06-29 06:18:00,62.3,59.3,29.65,North,360,2.7,6.0,90,0.00,CLR,,0.14,WeatherDisplay:10.37,2013-06-29 11:18:00,
2013-06-29 06:19:00,62.4,59.4,29.66,NE,45,3.0,5.8,90,0.00,CLR,,0.14,WeatherDisplay:10.37,2013-06-29 11:19:00,
2013-06-29 06:21:00,62.4,59.4,29.66,North,4,4.3,9.2,90,0.00,CLR,,0.14,WeatherDisplay:10.37,2013-06-29 11:21:00,
2013-06-29 06:22:00,62.3,59.3,29.65,NNW,336,1.1,3.5,90,0.00,CLR,,0.14,WeatherDisplay:10.37,2013-06-29 11:22:00,
2013-06-29 06:23:00,62.3,59.3,29.65,North,349,2.2,5.7,90,0.00,CLR,,0.14,WeatherDisplay:10.37,2013-06-29 11:23:00,
2013-06-29 06:24:00,62.4,59.4,29.66,NNE,31,3.8,8.0,90,0.00,CLR,,0.14,WeatherDisplay:10.37,2013-06-29 11:24:00,
2013-06-29 06:26:00,62.3,59.3,29.66,NNE,16,2.4,3.5,90,0.01,RA,,0.15,WeatherDisplay:10.37,2013-06-29 11:26:00,
2013-06-29 06:27:00,62.2,59.2,29.65,NE,35,1.6,3.0,90,0.02,RA,,0.16,WeatherDisplay:10.37,2013-06-29 11:27:00,
2013-06-29 06:28:00,62.2,59.2,29.65,NW,322,2.1,4.3,90,0.02,RA,,0.17,WeatherDisplay:10.37,2013-06-29 11:28:00,
2013-06-29 06:30:00,62.2,59.2,29.66,NW,305,4.6,9.2,90,0.09,RA,,0.24,WeatherDisplay:10.37,2013-06-29 11:30:00,
2013-06-29 06:31:00,62.2,59.2,29.66,NNE,30,2.7,4.6,90,0.13,RA,,0.28,WeatherDisplay:10.37,2013-06-29 11:31:00,
2013-06-29 06:32:00,62.2,59.2,29.66,NNE,20,4.1,6.9,90,0.16,RA,,0.30,WeatherDisplay:10.37,2013-06-29 11:32:00,
2013-06-29 06:33:00,62.1,59.1,29.66,NW,308,3.0,5.8,90,0.17,RA,,0.31,WeatherDisplay:10.37,2013-06-29 11:33:00,
2013-06-29 06:35:00,62.1,59.1,29.66,NE,41,3.3,5.8,90,0.19,RA,,0.34,WeatherDisplay:10.37,2013-06-29 11:35:00,
2013-06-29 06:36:00,62.1,59.1,29.66,ENE,66,2.8,6.5,90,0.21,RA,,0.36,WeatherDisplay:10.37,2013-06-29 11:36:00,
2013-06-29 06:38:00,62.0,59.0,29.66,North,4,3.8,8.1,90,0.22,RA,,0.36,WeatherDisplay:10.37,2013-06-29 11:38:00,
2013-06-29 06:40:00,62.0,59.0,29.66,NNE,31,1.8,3.5,90,0.27,RA,,0.41,WeatherDisplay:10.37,2013-06-29 11:40:00,
2013-06-29 06:42:00,61.7,58.7,29.66,NW,323,4.8,5.8,90,0.27,RA,,0.42,WeatherDisplay:10.37,2013-06-29 11:42:00,
2013-06-29 06:43:00,61.8,58.8,29.66,NE,44,3.6,5.8,90,0.28,RA,,0.42,WeatherDisplay:10.37,2013-06-29 11:43:00,
2013-06-29 06:46:00,61.8,58.8,29.66,ENE,61,5.3,9.2,90,0.28,RA,,0.42,WeatherDisplay:10.37,2013-06-29 11:46:00,
2013-06-29 06:47:00,61.7,58.7,29.66,NNE,16,3.5,6.9,90,0.28,RA,,0.42,WeatherDisplay:10.37,2013-06-29 11:47:00,
2013-06-29 06:48:00,61.7,58.7,29.66,NNE,25,2.6,6.9,90,0.28,RA,,0.42,WeatherDisplay:10.37,2013-06-29 11:48:00,
2013-06-29 06:49:00,61.7,58.7,29.66,NNE,17,0.9,6.9,90,0.28,RA,,0.42,WeatherDisplay:10.37,2013-06-29 11:49:00,
2013-06-29 06:51:00,61.6,58.9,29.66,East,95,2.4,4.6,91,0.28,RA,,0.42,WeatherDisplay:10.37,2013-06-29 11:51:00,
2013-06-29 06:52:00,61.6,58.9,29.66,ENE,73,3.8,6.9,91,0.28,,,0.42,WeatherDisplay:10.37,2013-06-29 11:52:00,
2013-06-29 06:53:00,61.6,58.9,29.66,ENE,62,1.7,4.6,91,0.28,,,0.42,WeatherDisplay:10.37,2013-06-29 11:53:00,
2013-06-29 06:54:00,61.6,58.9,29.66,NW,320,1.0,4.6,91,0.28,,,0.42,WeatherDisplay:10.37,2013-06-29 11:54:00,
2013-06-29 06:56:00,61.6,58.9,29.66,NNE,23,3.1,4.6,91,0.28,CLR,,0.42,WeatherDisplay:10.37,2013-06-29 11:56:00,
2013-06-29 06:57:00,61.6,58.9,29.66,NNE,20,3.4,5.8,91,0.28,CLR,,0.42,WeatherDisplay:10.37,2013-06-29 11:57:00,
2013-06-29 06:58:00,61.7,59.0,29.66,NNE,18,3.8,6.9,91,0.28,CLR,,0.42,WeatherDisplay:10.37,2013-06-29 11:58:00,
2013-06-29 06:59:00,61.6,58.9,29.66,North,10,3.4,6.9,91,0.28,CLR,,0.42,WeatherDisplay:10.37,2013-06-29 11:59:00,
2013-06-29 07:01:00,61.7,59.0,29.66,NNE,21,3.0,6.5,91,0.28,CLR,,0.42,WeatherDisplay:10.37,2013-06-29 12:01:00,
2013-06-29 07:02:00,61.7,59.0,29.66,NNE,23,4.1,6.9,91,0.28,CLR,,0.42,WeatherDisplay:10.37,2013-06-29 12:02:00,
2013-06-29 07:03:00,61.6,58.9,29.66,NE,44,3.5,9.2,91,0.28,CLR,,0.42,WeatherDisplay:10.37,2013-06-29 12:03:00,
2013-06-29 07:04:00,61.7,59.0,29.66,SW,217,3.2,5.8,91,0.28,CLR,,0.42,WeatherDisplay:10.37,2013-06-29 12:04:00,
2013-06-29 07:06:00,61.8,59.1,29.66,ENE,75,4.3,8.1,91,0.28,CLR,,0.42,WeatherDisplay:10.37,2013-06-29 12:06:00,
2013-06-29 07:07:00,61.7,59.0,29.66,North,360,3.3,5.8,91,0.28,CLR,,0.42,WeatherDisplay:10.37,2013-06-29 12:07:00,
2013-06-29 07:08:00,61.7,59.0,29.66,North,353,4.0,5.5,91,0.28,CLR,,0.42,WeatherDisplay:10.37,2013-06-29 12:08:00,
2013-06-29 07:09:00,61.6,58.9,29.66,NNE,25,4.4,5.8,91,0.28,CLR,,0.42,WeatherDisplay:10.37,2013-06-29 12:09:00,
2013-06-29 07:11:00,61.7,59.0,29.66,North,350,3.7,5.8,91,0.28,CLR,,0.42,WeatherDisplay:10.37,2013-06-29 12:11:00,
2013-06-29 07:12:00,61.7,59.0,29.66,NNE,13,2.3,5.8,91,0.28,CLR,,0.42,WeatherDisplay:10.37,2013-06-29 12:12:00,
2013-06-29 07:14:00,61.6,58.9,29.66,East,79,2.6,3.5,91,0.28,CLR,,0.42,WeatherDisplay:10.37,2013-06-29 12:14:00,
2013-06-29 07:15:00,61.7,59.0,29.66,NE,47,3.8,5.8,91,0.28,CLR,,0.42,WeatherDisplay:10.37,2013-06-29 12:15:00,
2013-06-29 07:16:00,61.6,58.9,29.66,NNE,16,2.3,4.6,91,0.28,CLR,,0.42,WeatherDisplay:10.37,2013-06-29 12:16:00,
2013-06-29 07:18:00,61.6,58.9,29.66,NNW,343,1.7,4.6,91,0.28,CLR,,0.42,WeatherDisplay:10.37,2013-06-29 12:18:00,
2013-06-29 07:19:00,61.5,58.8,29.66,NNE,28,0.7,5.8,91,0.28,CLR,,0.42,WeatherDisplay:10.37,2013-06-29 12:19:00,
2013-06-29 07:21:00,61.7,59.0,29.66,NNW,332,1.5,5.8,91,0.28,CLR,,0.42,WeatherDisplay:10.37,2013-06-29 12:21:00,
2013-06-29 07:22:00,61.6,58.9,29.66,North,350,1.7,2.9,91,0.28,CLR,,0.42,WeatherDisplay:10.37,2013-06-29 12:22:00,
2013-06-29 07:23:00,61.6,58.9,29.66,NE,56,1.9,4.6,91,0.28,CLR,,0.42,WeatherDisplay:10.37,2013-06-29 12:23:00,
2013-06-29 07:24:00,61.6,58.9,29.66,NNE,32,1.7,4.6,91,0.28,CLR,,0.42,WeatherDisplay:10.37,2013-06-29 12:24:00,
2013-06-29 07:26:00,61.6,58.9,29.67,North,7,0.6,3.5,91,0.28,CLR,,0.42,WeatherDisplay:10.37,2013-06-29 12:26:00,
2013-06-29 07:27:00,61.5,58.8,29.67,ENE,65,0.4,2.3,91,0.27,CLR,,0.42,WeatherDisplay:10.37,2013-06-29 12:27:00,
2013-06-29 07:28:00,61.6,58.9,29.67,ENE,65,0.0,1.2,91,0.25,CLR,,0.42,WeatherDisplay:10.37,2013-06-29 12:28:00,
2013-06-29 07:29:00,61.6,58.9,29.67,North,4,3.0,8.1,91,0.23,CLR,,0.42,WeatherDisplay:10.37,2013-06-29 12:29:00,
2013-06-29 07:31:00,61.6,58.9,29.67,NNE,27,3.7,8.1,91,0.19,CLR,,0.42,WeatherDisplay:10.37,2013-06-29 12:31:00,
2013-06-29 07:32:00,61.5,58.8,29.67,NNW,332,4.2,7.9,91,0.12,CLR,,0.42,WeatherDisplay:10.37,2013-06-29 12:32:00,
2013-06-29 07:33:00,61.5,58.8,29.67,NNW,340,5.0,8.1,91,0.11,CLR,,0.42,WeatherDisplay:10.37,2013-06-29 12:33:00,
2013-06-29 07:34:00,61.5,58.8,29.67,WNW,295,4.9,8.1,91,0.10,CLR,,0.42,WeatherDisplay:10.37,2013-06-29 12:34:00,
2013-06-29 07:35:00,61.4,58.7,29.67,NNW,328,3.8,5.8,91,0.09,CLR,,0.42,WeatherDisplay:10.37,2013-06-29 12:35:00,
2013-06-29 07:36:00,61.3,58.7,29.67,North,3,4.2,6.5,91,0.07,CLR,,0.42,WeatherDisplay:10.37,2013-06-29 12:36:00,
2013-06-29 07:37:00,61.3,58.7,29.67,North,360,4.4,6.9,91,0.06,CLR,,0.42,WeatherDisplay:10.37,2013-06-29 12:37:00,
2013-06-29 07:39:00,61.3,58.7,29.67,North,360,3.6,5.8,91,0.06,CLR,,0.42,WeatherDisplay:10.37,2013-06-29 12:39:00,
2013-06-29 07:40:00,61.5,59.2,29.67,North,356,2.5,9.3,92,0.01,CLR,,0.42,WeatherDisplay:10.37,2013-06-29 12:40:00,
2013-06-29 07:41:00,61.3,59.0,29.67,North,360,3.5,9.2,92,0.01,CLR,,0.42,WeatherDisplay:10.37,2013-06-29 12:41:00,
2013-06-29 07:42:00,61.3,59.0,29.67,North,4,4.0,6.5,92,0.00,CLR,,0.42,WeatherDisplay:10.37,2013-06-29 12:42:00,
2013-06-29 07:44:00,61.3,59.0,29.67,SSE,155,2.5,6.9,92,0.00,CLR,,0.42,WeatherDisplay:10.37,2013-06-29 12:44:00,
2013-06-29 07:45:00,61.5,59.2,29.67,NNE,17,2.4,6.9,92,0.00,CLR,,0.42,WeatherDisplay:10.37,2013-06-29 12:45:00,
2013-06-29 07:47:00,61.3,59.0,29.67,North,360,4.1,6.2,92,0.00,CLR,,0.42,WeatherDisplay:10.37,2013-06-29 12:47:00,
2013-06-29 07:48:00,61.4,59.1,29.67,WNW,298,4.6,5.8,92,0.00,CLR,,0.42,WeatherDisplay:10.37,2013-06-29 12:48:00,
2013-06-29 07:49:00,61.3,59.0,29.67,NE,54,2.7,5.8,92,0.00,CLR,,0.42,WeatherDisplay:10.37,2013-06-29 12:49:00,
2013-06-29 07:50:00,61.3,59.0,29.67,East,96,1.7,3.5,92,0.00,CLR,,0.42,WeatherDisplay:10.37,2013-06-29 12:50:00,
2013-06-29 07:52:00,61.4,59.1,29.67,NNE,24,2.2,6.9,92,0.00,CLR,,0.42,WeatherDisplay:10.37,2013-06-29 12:52:00,
2013-06-29 07:53:00,61.3,59.0,29.67,East,99,1.9,6.9,92,0.00,CLR,,0.42,WeatherDisplay:10.37,2013-06-29 12:53:00,
2013-06-29 07:54:00,61.4,59.1,29.67,NNW,333,3.1,5.8,92,0.00,CLR,,0.42,WeatherDisplay:10.37,2013-06-29 12:54:00,
2013-06-29 07:55:00,61.3,59.0,29.67,North,356,3.8,5.8,92,0.00,CLR,,0.42,WeatherDisplay:10.37,2013-06-29 12:55:00,
2013-06-29 07:58:00,61.3,59.0,29.67,NE,38,3.5,5.8,92,0.00,CLR,,0.42,WeatherDisplay:10.37,2013-06-29 12:58:00,
2013-06-29 07:59:00,61.3,59.0,29.67,NNW,332,4.9,6.9,92,0.00,CLR,,0.42,WeatherDisplay:10.37,2013-06-29 12:59:00,
2013-06-29 08:00:00,61.3,59.0,29.67,North,359,4.6,9.2,92,0.00,CLR,,0.42,WeatherDisplay:10.37,2013-06-29 13:00:00,
2013-06-29 08:01:00,61.4,59.1,29.67,North,7,4.6,9.2,92,0.00,CLR,,0.42,WeatherDisplay:10.37,2013-06-29 13:01:00,
2013-06-29 08:03:00,61.3,59.0,29.67,North,353,2.4,9.2,92,0.00,CLR,,0.42,WeatherDisplay:10.37,2013-06-29 13:03:00,
2013-06-29 08:04:00,61.3,59.0,29.67,NE,40,2.7,4.6,92,0.00,CLR,,0.42,WeatherDisplay:10.37,2013-06-29 13:04:00,
2013-06-29 08:05:00,61.3,59.0,29.67,ESE,112,3.8,6.7,92,0.00,CLR,,0.42,WeatherDisplay:10.37,2013-06-29 13:05:00,
2013-06-29 08:06:00,61.3,59.0,29.67,NNE,18,3.4,6.9,92,0.00,CLR,,0.42,WeatherDisplay:10.37,2013-06-29 13:06:00,
2013-06-29 08:08:00,61.3,59.0,29.68,NNE,16,4.9,6.9,92,0.00,CLR,,0.42,WeatherDisplay:10.37,2013-06-29 13:08:00,
2013-06-29 08:09:00,61.4,59.1,29.68,ENE,65,4.6,6.9,92,0.00,CLR,,0.42,WeatherDisplay:10.37,2013-06-29 13:09:00,
2013-06-29 08:10:00,61.4,59.1,29.68,NE,49,6.1,8.1,92,0.00,CLR,,0.42,WeatherDisplay:10.37,2013-06-29 13:10:00,
2013-06-29 08:11:00,61.3,59.0,29.68,NNE,24,3.5,9.2,92,0.00,CLR,,0.42,WeatherDisplay:10.37,2013-06-29 13:11:00,
2013-06-29 08:14:00,61.4,59.1,29.68,WNW,296,1.8,3.5,92,0.00,CLR,,0.42,WeatherDisplay:10.37,2013-06-29 13:14:00,
2013-06-29 08:15:00,61.5,59.2,29.68,NNE,20,4.1,7.7,92,0.00,CLR,,0.42,WeatherDisplay:10.37,2013-06-29 13:15:00,
2013-06-29 08:16:00,61.4,59.1,29.68,North,11,4.5,8.1,92,0.00,CLR,,0.42,WeatherDisplay:10.37,2013-06-29 13:16:00,
2013-06-29 08:19:00,61.5,59.2,29.68,NNW,336,3.9,7.2,92,0.00,CLR,,0.42,WeatherDisplay:10.37,2013-06-29 13:19:00,
2013-06-29 08:20:00,61.4,59.1,29.68,NE,40,3.2,8.1,92,0.00,CLR,,0.42,WeatherDisplay:10.37,2013-06-29 13:20:00,
2013-06-29 08:21:00,61.4,59.1,29.68,NE,52,3.2,8.1,92,0.00,CLR,,0.42,WeatherDisplay:10.37,2013-06-29 13:21:00,
2013-06-29 08:24:00,61.4,59.1,29.68,NE,41,4.8,11.5,92,0.00,CLR,,0.42,WeatherDisplay:10.37,2013-06-29 13:24:00,
2013-06-29 08:26:00,61.4,59.1,29.68,NE,52,4.3,8.1,92,0.00,CLR,,0.42,WeatherDisplay:10.37,2013-06-29 13:26:00,
2013-06-29 08:27:00,61.4,59.1,29.68,ESE,116,2.2,4.6,92,0.00,CLR,,0.42,WeatherDisplay:10.37,2013-06-29 13:27:00,
2013-06-29 08:29:00,61.4,59.1,29.68,NNW,333,3.8,5.8,92,0.00,CLR,,0.42,WeatherDisplay:10.37,2013-06-29 13:29:00,
2013-06-29 08:31:00,61.4,59.1,29.68,NNW,333,3.8,8.1,92,0.00,CLR,,0.42,WeatherDisplay:10.37,2013-06-29 13:31:00,
2013-06-29 08:32:00,61.4,59.1,29.68,North,8,2.6,4.6,92,0.00,CLR,,0.42,WeatherDisplay:10.37,2013-06-29 13:32:00,
2013-06-29 08:34:00,61.5,59.2,29.68,North,10,3.6,5.8,92,0.00,CLR,,0.42,WeatherDisplay:10.37,2013-06-29 13:34:00,
2013-06-29 08:35:00,61.5,59.2,29.68,NNE,28,3.9,5.8,92,0.00,CLR,,0.42,WeatherDisplay:10.37,2013-06-29 13:35:00,
2013-06-29 08:37:00,61.4,59.1,29.68,NNW,335,2.6,6.3,92,0.00,CLR,,0.42,WeatherDisplay:10.37,2013-06-29 13:37:00,
2013-06-29 08:40:00,61.5,59.2,29.68,NNE,18,3.8,8.1,92,0.00,CLR,,0.42,WeatherDisplay:10.37,2013-06-29 13:40:00,
2013-06-29 08:42:00,61.5,59.2,29.68,East,90,4.2,6.3,92,0.00,CLR,,0.42,WeatherDisplay:10.37,2013-06-29 13:42:00,
2013-06-29 08:45:00,61.5,59.2,29.68,North,352,5.9,12.0,92,0.00,CLR,,0.42,WeatherDisplay:10.37,2013-06-29 13:45:00,
2013-06-29 08:47:00,61.5,59.2,29.68,North,360,3.9,6.9,92,0.00,CLR,,0.42,WeatherDisplay:10.37,2013-06-29 13:47:00,
2013-06-29 08:48:00,61.4,59.1,29.68,NE,44,3.3,6.9,92,0.00,CLR,,0.42,WeatherDisplay:10.37,2013-06-29 13:48:00,
2013-06-29 08:50:00,61.4,59.1,29.68,North,349,2.6,5.8,92,0.00,CLR,,0.42,WeatherDisplay:10.37,2013-06-29 13:50:00,
2013-06-29 08:51:00,61.4,59.1,29.68,East,82,2.8,4.6,92,0.00,CLR,,0.42,WeatherDisplay:10.37,2013-06-29 13:51:00,
2013-06-29 08:53:00,61.4,59.1,29.68,East,89,3.4,6.9,92,0.00,CLR,,0.42,WeatherDisplay:10.37,2013-06-29 13:53:00,
2013-06-29 08:54:00,61.4,59.1,29.68,SSW,193,3.1,5.8,92,0.00,CLR,,0.42,WeatherDisplay:10.37,2013-06-29 13:54:00,
2013-06-29 08:55:00,61.4,59.1,29.68,NE,55,4.3,6.9,92,0.00,CLR,,0.42,WeatherDisplay:10.37,2013-06-29 13:55:00,
2013-06-29 08:56:00,61.5,59.2,29.68,East,96,4.3,9.2,92,0.00,CLR,,0.42,WeatherDisplay:10.37,2013-06-29 13:56:00,
2013-06-29 08:58:00,61.5,59.2,29.68,North,350,3.8,6.9,92,0.00,CLR,,0.42,WeatherDisplay:10.37,2013-06-29 13:58:00,
2013-06-29 08:59:00,61.3,59.0,29.68,North,360,6.2,11.5,92,0.00,CLR,,0.42,WeatherDisplay:10.37,2013-06-29 13:59:00,
2013-06-29 09:00:00,61.4,59.1,29.68,NNE,25,5.0,9.2,92,0.00,CLR,,0.42,WeatherDisplay:10.37,2013-06-29 14:00:00,
2013-06-29 09:01:00,61.4,59.1,29.69,NE,52,4.2,5.8,92,0.00,CLR,,0.42,WeatherDisplay:10.37,2013-06-29 14:01:00,
2013-06-29 09:03:00,61.4,59.1,29.69,NW,323,2.3,4.6,92,0.00,CLR,,0.42,WeatherDisplay:10.37,2013-06-29 14:03:00,
2013-06-29 09:04:00,61.4,59.1,29.68,WNW,294,2.8,5.8,92,0.00,CLR,,0.42,WeatherDisplay:10.37,2013-06-29 14:04:00,
2013-06-29 09:05:00,61.5,59.2,29.69,ENE,64,4.8,8.2,92,0.00,CLR,,0.42,WeatherDisplay:10.37,2013-06-29 14:05:00,
2013-06-29 09:06:00,61.6,59.3,29.69,NW,320,6.1,8.1,92,0.00,CLR,,0.42,WeatherDisplay:10.37,2013-06-29 14:06:00,
2013-06-29 09:08:00,61.5,59.2,29.69,NW,319,1.8,2.8,92,0.00,CLR,,0.42,WeatherDisplay:10.37,2013-06-29 14:08:00,
2013-06-29 09:09:00,61.5,59.2,29.69,NE,34,2.6,4.6,92,0.00,CLR,,0.42,WeatherDisplay:10.37,2013-06-29 14:09:00,
2013-06-29 09:10:00,61.5,59.2,29.69,ENE,69,3.4,4.6,92,0.00,CLR,,0.42,WeatherDisplay:10.37,2013-06-29 14:10:00,
2013-06-29 09:11:00,61.6,59.3,29.69,NE,45,2.1,5.8,92,0.00,CLR,,0.42,WeatherDisplay:10.37,2013-06-29 14:11:00,
2013-06-29 09:13:00,61.7,59.4,29.69,NNE,32,4.4,6.9,92,0.00,CLR,,0.42,WeatherDisplay:10.37,2013-06-29 14:13:00,
2013-06-29 09:14:00,61.7,59.4,29.69,North,350,3.6,8.1,92,0.00,CLR,,0.42,WeatherDisplay:10.37,2013-06-29 14:14:00,
2013-06-29 09:15:00,61.8,59.5,29.69,NNE,21,3.4,8.1,92,0.00,CLR,,0.42,WeatherDisplay:10.37,2013-06-29 14:15:00,
2013-06-29 09:16:00,61.6,59.3,29.69,North,11,2.7,6.9,92,0.00,CLR,,0.42,WeatherDisplay:10.37,2013-06-29 14:16:00,
2013-06-29 09:18:00,61.8,59.5,29.69,ENE,75,3.9,5.8,92,0.00,CLR,,0.42,WeatherDisplay:10.37,2013-06-29 14:18:00,
2013-06-29 09:20:00,61.7,59.4,29.69,North,4,3.7,6.9,92,0.00,CLR,,0.42,WeatherDisplay:10.37,2013-06-29 14:20:00,
2013-06-29 09:21:00,61.8,59.5,29.69,ENE,66,4.7,6.9,92,0.00,CLR,,0.42,WeatherDisplay:10.37,2013-06-29 14:21:00,
2013-06-29 09:23:00,61.8,59.5,29.69,NNE,16,4.8,8.1,92,0.00,CLR,,0.42,WeatherDisplay:10.37,2013-06-29 14:23:00,
2013-06-29 09:25:00,61.9,59.5,29.69,NNE,14,3.2,4.6,92,0.00,CLR,,0.42,WeatherDisplay:10.37,2013-06-29 14:25:00,
2013-06-29 09:26:00,62.0,59.6,29.69,NNE,21,4.5,6.9,92,0.00,CLR,,0.42,WeatherDisplay:10.37,2013-06-29 14:26:00,
2013-06-29 09:29:00,61.9,59.5,29.69,NE,34,4.7,5.8,92,0.00,CLR,,0.42,WeatherDisplay:10.37,2013-06-29 14:29:00,
2013-06-29 09:30:00,62.0,59.6,29.69,ESE,110,2.7,4.6,92,0.00,CLR,,0.42,WeatherDisplay:10.37,2013-06-29 14:30:00,
2013-06-29 09:31:00,62.1,59.7,29.69,NNE,13,0.6,2.7,92,0.00,CLR,,0.42,WeatherDisplay:10.37,2013-06-29 14:31:00,
2013-06-29 09:32:00,62.0,59.6,29.69,NE,51,1.0,2.3,92,0.00,CLR,,0.42,WeatherDisplay:10.37,2013-06-29 14:32:00,
2013-06-29 09:34:00,62.0,59.6,29.69,NNE,31,2.0,3.5,92,0.00,CLR,,0.42,WeatherDisplay:10.37,2013-06-29 14:34:00,
2013-06-29 09:35:00,62.1,59.7,29.69,East,89,3.4,7.3,92,0.00,CLR,,0.42,WeatherDisplay:10.37,2013-06-29 14:35:00,
2013-06-29 09:36:00,62.1,59.7,29.69,NNE,17,4.4,4.6,92,0.00,CLR,,0.42,WeatherDisplay:10.37,2013-06-29 14:36:00,
2013-06-29 09:37:00,62.0,59.6,29.69,NNE,23,3.6,9.2,92,0.00,CLR,,0.42,WeatherDisplay:10.37,2013-06-29 14:37:00,
2013-06-29 09:39:00,62.1,59.4,29.69,ESE,116,2.4,6.9,91,0.00,CLR,,0.42,WeatherDisplay:10.37,2013-06-29 14:39:00,
2013-06-29 09:40:00,62.1,59.4,29.69,NE,44,4.3,6.9,91,0.00,CLR,,0.42,WeatherDisplay:10.37,2013-06-29 14:40:00,
2013-06-29 09:41:00,62.0,59.3,29.69,NE,42,2.8,5.8,91,0.00,CLR,,0.42,WeatherDisplay:10.37,2013-06-29 14:41:00,
2013-06-29 09:42:00,62.0,59.3,29.69,East,85,2.8,5.8,91,0.00,CLR,,0.42,WeatherDisplay:10.37,2013-06-29 14:42:00,
2013-06-29 09:44:00,62.1,59.7,29.69,NE,51,3.5,7.6,92,0.00,CLR,,0.42,WeatherDisplay:10.37,2013-06-29 14:44:00,
2013-06-29 09:46:00,62.1,59.4,29.69,North,7,2.8,8.1,91,0.00,CLR,,0.42,WeatherDisplay:10.37,2013-06-29 14:46:00,
2013-06-29 09:47:00,62.2,59.5,29.69,NE,55,4.4,5.8,91,0.00,CLR,,0.42,WeatherDisplay:10.37,2013-06-29 14:47:00,
2013-06-29 09:49:00,62.2,59.5,29.69,North,360,3.3,5.0,91,0.00,CLR,,0.42,WeatherDisplay:10.37,2013-06-29 14:49:00,
2013-06-29 09:51:00,62.2,59.5,29.69,NE,34,3.3,6.2,91,0.00,CLR,,0.42,WeatherDisplay:10.37,2013-06-29 14:51:00,
2013-06-29 09:52:00,62.2,59.5,29.69,NNE,17,3.6,5.8,91,0.00,CLR,,0.42,WeatherDisplay:10.37,2013-06-29 14:52:00,
2013-06-29 09:53:00,62.3,59.6,29.69,NNE,27,2.3,4.6,91,0.00,CLR,,0.42,WeatherDisplay:10.37,2013-06-29 14:53:00,
2013-06-29 09:54:00,62.4,59.7,29.69,South,181,1.8,4.6,91,0.00,CLR,,0.42,WeatherDisplay:10.37,2013-06-29 14:54:00,
2013-06-29 09:57:00,62.3,59.6,29.69,North,4,6.2,8.1,91,0.00,CLR,,0.42,WeatherDisplay:10.37,2013-06-29 14:57:00,
2013-06-29 09:58:00,62.2,59.5,29.69,ENE,66,3.5,6.9,91,0.00,CLR,,0.42,WeatherDisplay:10.37,2013-06-29 14:58:00,
2013-06-29 09:59:00,62.2,59.5,29.69,ENE,68,2.8,5.8,91,0.00,CLR,,0.42,WeatherDisplay:10.37,2013-06-29 14:59:00,
2013-06-29 10:02:00,62.3,59.6,29.69,NNW,340,2.9,6.9,91,0.00,CLR,,0.42,WeatherDisplay:10.37,2013-06-29 15:02:00,
2013-06-29 10:03:00,62.3,59.6,29.69,NE,38,3.1,4.6,91,0.00,CLR,,0.42,WeatherDisplay:10.37,2013-06-29 15:03:00,
2013-06-29 10:04:00,62.3,59.6,29.69,NNE,32,3.7,6.9,91,0.00,CLR,,0.42,WeatherDisplay:10.37,2013-06-29 15:04:00,
2013-06-29 10:07:00,62.4,59.7,29.69,NE,44,4.7,9.2,91,0.00,CLR,,0.42,WeatherDisplay:10.37,2013-06-29 15:07:00,
2013-06-29 10:08:00,62.3,59.6,29.69,NNE,27,4.3,8.1,91,0.00,CLR,,0.42,WeatherDisplay:10.37,2013-06-29 15:08:00,
2013-06-29 10:09:00,62.4,59.7,29.69,NNW,336,2.6,5.8,91,0.00,CLR,,0.42,WeatherDisplay:10.37,2013-06-29 15:09:00,
2013-06-29 10:12:00,62.4,59.7,29.69,NE,52,4.3,5.8,91,0.00,CLR,,0.42,WeatherDisplay:10.37,2013-06-29 15:12:00,
2013-06-29 10:13:00,62.4,59.7,29.69,ESE,103,3.8,5.8,91,0.00,CLR,,0.42,WeatherDisplay:10.37,2013-06-29 15:13:00,
2013-06-29 10:14:00,62.4,59.7,29.69,NE,45,5.6,6.6,91,0.00,CLR,,0.42,WeatherDisplay:10.37,2013-06-29 15:14:00,
2013-06-29 10:15:00,62.3,59.6,29.69,NE,48,6.7,11.5,91,0.00,CLR,,0.42,WeatherDisplay:10.37,2013-06-29 15:15:00,
2013-06-29 10:18:00,62.5,59.5,29.69,NNE,18,6.0,9.2,90,0.00,CLR,,0.42,WeatherDisplay:10.37,2013-06-29 15:18:00,
2013-06-29 10:19:00,62.4,59.4,29.69,WNW,291,5.7,9.2,90,0.00,CLR,,0.42,WeatherDisplay:10.37,2013-06-29 15:19:00,
2013-06-29 10:20:00,62.5,59.5,29.69,North,4,4.0,9.2,90,0.00,CLR,,0.42,WeatherDisplay:10.37,2013-06-29 15:20:00,
2013-06-29 10:23:00,62.5,59.5,29.69,East,96,2.3,6.9,90,0.00,CLR,,0.42,WeatherDisplay:10.37,2013-06-29 15:23:00,
2013-06-29 10:24:00,62.4,59.4,29.69,ENE,66,3.2,3.9,90,0.00,CLR,,0.42,WeatherDisplay:10.37,2013-06-29 15:24:00,
2013-06-29 10:25:00,62.6,59.6,29.69,NE,56,6.4,10.4,90,0.00,CLR,,0.42,WeatherDisplay:10.37,2013-06-29 15:25:00,
2013-06-29 10:28:00,62.6,59.6,29.69,East,82,5.3,12.7,90,0.00,CLR,,0.42,WeatherDisplay:10.37,2013-06-29 15:28:00,
2013-06-29 10:29:00,62.7,59.7,29.69,ENE,73,4.2,11.5,90,0.00,CLR,,0.42,WeatherDisplay:10.37,2013-06-29 15:29:00,
2013-06-29 10:30:00,62.8,59.8,29.69,North,6,5.2,9.2,90,0.00,CLR,,0.42,WeatherDisplay:10.37,2013-06-29 15:30:00,
2013-06-29 10:33:00,62.8,59.5,29.69,NE,42,5.0,5.8,89,0.00,CLR,,0.42,WeatherDisplay:10.37,2013-06-29 15:33:00,
2013-06-29 10:34:00,62.7,59.4,29.69,NNE,25,5.3,8.1,89,0.00,CLR,,0.42,WeatherDisplay:10.37,2013-06-29 15:34:00,
2013-06-29 10:35:00,62.8,59.5,29.69,NNE,31,7.5,9.2,89,0.00,CLR,,0.42,WeatherDisplay:10.37,2013-06-29 15:35:00,
2013-06-29 10:38:00,62.7,59.4,29.69,NNE,25,4.5,9.2,89,0.00,CLR,,0.42,WeatherDisplay:10.37,2013-06-29 15:38:00,
2013-06-29 10:39:00,62.9,59.6,29.69,NNE,25,5.1,10.4,89,0.00,CLR,,0.42,WeatherDisplay:10.37,2013-06-29 15:39:00,
2013-06-29 10:40:00,62.8,59.2,29.69,NW,325,4.9,9.2,88,0.00,CLR,,0.42,WeatherDisplay:10.37,2013-06-29 15:40:00,
2013-06-29 10:43:00,63.1,59.5,29.69,NNE,21,3.7,6.9,88,0.00,CLR,,0.42,WeatherDisplay:10.37,2013-06-29 15:43:00,
2013-06-29 10:44:00,63.1,59.5,29.69,NE,40,2.8,6.9,88,0.00,CLR,,0.42,WeatherDisplay:10.37,2013-06-29 15:44:00,
2013-06-29 10:45:00,63.2,59.6,29.69,NNW,346,5.4,8.1,88,0.00,CLR,,0.42,WeatherDisplay:10.37,2013-06-29 15:45:00,
2013-06-29 10:48:00,63.5,59.9,29.69,North,1,2.6,8.1,88,0.00,CLR,,0.42,WeatherDisplay:10.37,2013-06-29 15:48:00,
2013-06-29 10:49:00,63.7,60.1,29.69,ENE,68,1.9,2.3,88,0.00,CLR,,0.42,WeatherDisplay:10.37,2013-06-29 15:49:00,
2013-06-29 10:50:00,63.7,60.1,29.69,NNE,25,2.1,2.9,88,0.00,CLR,,0.42,WeatherDisplay:10.37,2013-06-29 15:50:00,
2013-06-29 10:54:00,63.9,60.0,29.69,North,360,3.8,7.4,87,0.00,CLR,,0.42,WeatherDisplay:10.37,2013-06-29 15:54:00,
2013-06-29 10:55:00,64.0,60.1,29.69,North,354,5.5,9.2,87,0.00,CLR,,0.42,WeatherDisplay:10.37,2013-06-29 15:55:00,
2013-06-29 10:56:00,64.0,60.1,29.69,NE,52,3.9,9.2,87,0.00,CLR,,0.42,WeatherDisplay:10.37,2013-06-29 15:56:00,
2013-06-29 10:59:00,64.0,59.7,29.69,NE,41,3.7,10.9,86,0.00,CLR,,0.42,WeatherDisplay:10.37,2013-06-29 15:59:00,
2013-06-29 11:00:00,64.1,59.8,29.70,NE,37,6.0,9.2,86,0.00,CLR,,0.42,WeatherDisplay:10.37,2013-06-29 16:00:00,
2013-06-29 11:01:00,64.0,59.7,29.69,ENE,65,3.9,12.7,86,0.00,CLR,,0.42,WeatherDisplay:10.37,2013-06-29 16:01:00,
2013-06-29 11:04:00,64.0,59.7,29.70,ENE,76,5.8,10.4,86,0.00,CLR,,0.42,WeatherDisplay:10.37,2013-06-29 16:04:00,
2013-06-29 11:05:00,64.0,59.7,29.70,NNW,346,6.6,10.4,86,0.00,CLR,,0.42,WeatherDisplay:10.37,2013-06-29 16:05:00,
2013-06-29 11:06:00,64.1,59.8,29.70,North,353,7.0,9.4,86,0.00,CLR,,0.42,WeatherDisplay:10.37,2013-06-29 16:06:00,
2013-06-29 11:09:00,64.1,59.5,29.70,North,8,5.9,9.2,85,0.00,CLR,,0.42,WeatherDisplay:10.37,2013-06-29 16:09:00,
2013-06-29 11:10:00,64.0,59.4,29.70,ENE,69,6.5,11.5,85,0.00,CLR,,0.42,WeatherDisplay:10.37,2013-06-29 16:10:00,
2013-06-29 11:11:00,64.2,59.6,29.70,NNE,16,6.2,11.5,85,0.00,CLR,,0.42,WeatherDisplay:10.37,2013-06-29 16:11:00,
2013-06-29 11:14:00,64.4,59.8,29.70,SE,136,8.6,16.1,85,0.00,CLR,,0.42,WeatherDisplay:10.37,2013-06-29 16:14:00,
2013-06-29 11:15:00,64.6,59.7,29.70,ESE,109,7.1,11.5,84,0.00,CLR,,0.42,WeatherDisplay:10.37,2013-06-29 16:15:00,
2013-06-29 11:16:00,64.7,59.8,29.70,SE,126,4.9,10.4,84,0.00,CLR,,0.42,WeatherDisplay:10.37,2013-06-29 16:16:00,
2013-06-29 11:19:00,65.0,60.0,29.70,ESE,120,2.5,5.8,84,0.00,CLR,,0.42,WeatherDisplay:10.37,2013-06-29 16:19:00,
2013-06-29 11:20:00,65.1,60.1,29.70,North,11,4.2,5.2,84,0.00,CLR,,0.42,WeatherDisplay:10.37,2013-06-29 16:20:00,
2013-06-29 11:21:00,65.1,60.1,29.70,NE,44,4.4,4.6,84,0.00,CLR,,0.42,WeatherDisplay:10.37,2013-06-29 16:21:00,
2013-06-29 11:24:00,65.2,60.2,29.70,NNE,25,3.7,6.9,84,0.00,CLR,,0.42,WeatherDisplay:10.37,2013-06-29 16:24:00,
2013-06-29 11:25:00,65.4,60.1,29.70,NE,35,3.0,5.8,83,0.00,CLR,,0.42,WeatherDisplay:10.37,2013-06-29 16:25:00,
2013-06-29 11:26:00,65.4,60.1,29.70,ESE,104,3.0,5.8,83,0.00,CLR,,0.42,WeatherDisplay:10.37,2013-06-29 16:26:00,
2013-06-29 11:27:00,65.4,60.1,29.70,ENE,64,4.6,7.3,83,0.00,CLR,,0.42,WeatherDisplay:10.37,2013-06-29 16:27:00,
2013-06-29 11:30:00,65.9,60.2,29.70,East,90,4.7,9.2,82,0.00,CLR,,0.42,WeatherDisplay:10.37,2013-06-29 16:30:00,
2013-06-29 11:31:00,65.8,60.2,29.71,NE,56,5.3,9.2,82,0.00,CLR,,0.42,WeatherDisplay:10.37,2013-06-29 16:31:00,
2013-06-29 11:32:00,66.0,60.3,29.70,North,360,4.1,11.5,82,0.00,CLR,,0.42,WeatherDisplay:10.37,2013-06-29 16:32:00,
2013-06-29 11:35:00,66.0,60.0,29.71,North,11,4.1,9.2,81,0.00,CLR,,0.42,WeatherDisplay:10.37,2013-06-29 16:35:00,
2013-06-29 11:36:00,66.0,60.0,29.71,NE,44,5.5,9.2,81,0.00,CLR,,0.42,WeatherDisplay:10.37,2013-06-29 16:36:00,
2013-06-29 11:37:00,65.9,59.9,29.71,ENE,64,5.4,9.2,81,0.00,CLR,,0.42,WeatherDisplay:10.37,2013-06-29 16:37:00,
2013-06-29 11:40:00,65.9,59.6,29.70,ENE,72,3.6,11.5,80,0.00,CLR,,0.42,WeatherDisplay:10.37,2013-06-29 16:40:00,
2013-06-29 11:41:00,65.8,59.5,29.70,NNE,32,4.9,9.2,80,0.00,CLR,,0.42,WeatherDisplay:10.37,2013-06-29 16:41:00,
2013-06-29 11:42:00,65.8,59.5,29.71,NE,55,5.2,9.2,80,0.00,CLR,,0.42,WeatherDisplay:10.37,2013-06-29 16:42:00,
2013-06-29 11:45:00,65.4,59.4,29.71,East,97,6.3,11.5,81,0.00,CLR,,0.42,WeatherDisplay:10.37,2013-06-29 16:45:00,
2013-06-29 11:46:00,65.5,59.5,29.71,ENE,65,5.2,9.2,81,0.00,CLR,,0.42,WeatherDisplay:10.37,2013-06-29 16:46:00,
2013-06-29 11:47:00,65.6,59.6,29.71,South,171,5.8,9.2,81,0.00,CLR,,0.42,WeatherDisplay:10.37,2013-06-29 16:47:00,
2013-06-29 11:48:00,65.4,59.4,29.71,NE,47,6.3,9.2,81,0.00,CLR,,0.42,WeatherDisplay:10.37,2013-06-29 16:48:00,
2013-06-29 11:50:00,65.4,59.8,29.71,North,0,4.4,8.1,82,0.00,CLR,,0.42,WeatherDisplay:10.37,2013-06-29 16:50:00,
2013-06-29 11:51:00,65.3,59.7,29.71,North,1,7.4,8.1,82,0.00,CLR,,0.42,WeatherDisplay:10.37,2013-06-29 16:51:00,
2013-06-29 11:53:00,65.3,59.3,29.71,NNE,14,7.2,13.8,81,0.00,CLR,,0.42,WeatherDisplay:10.37,2013-06-29 16:53:00,
2013-06-29 11:54:00,65.3,59.3,29.71,NE,40,4.4,11.5,81,0.00,CLR,,0.42,WeatherDisplay:10.37,2013-06-29 16:54:00,
2013-06-29 11:56:00,65.3,59.3,29.71,NE,51,5.8,9.2,81,0.00,CLR,,0.42,WeatherDisplay:10.37,2013-06-29 16:56:00,
2013-06-29 11:58:00,65.5,59.9,29.71,NE,54,4.4,10.4,82,0.00,CLR,,0.42,WeatherDisplay:10.37,2013-06-29 16:58:00,
2013-06-29 11:59:00,65.3,59.7,29.71,SE,128,5.3,9.2,82,0.00,CLR,,0.42,WeatherDisplay:10.37,2013-06-29 16:59:00,
2013-06-29 12:01:00,65.6,59.6,29.71,East,85,4.8,6.9,81,0.00,CLR,,0.42,WeatherDisplay:10.37,2013-06-29 17:01:00,
2013-06-29 12:04:00,65.9,60.2,29.71,ENE,58,3.6,4.6,82,0.00,CLR,,0.42,WeatherDisplay:10.37,2013-06-29 17:04:00,
2013-06-29 12:06:00,66.2,60.2,29.71,ESE,104,5.9,9.2,81,0.00,CLR,,0.42,WeatherDisplay:10.37,2013-06-29 17:06:00,
2013-06-29 12:07:00,66.0,60.0,29.71,East,83,5.9,9.2,81,0.00,CLR,,0.42,WeatherDisplay:10.37,2013-06-29 17:07:00,
2013-06-29 12:09:00,66.4,60.7,29.71,ENE,75,7.1,9.4,82,0.00,CLR,,0.42,WeatherDisplay:10.37,2013-06-29 17:09:00,
2013-06-29 12:11:00,67.0,60.6,29.71,NE,45,5.0,9.2,80,0.00,CLR,,0.42,WeatherDisplay:10.37,2013-06-29 17:11:00,
2013-06-29 12:12:00,67.0,60.6,29.71,NE,54,4.4,9.2,80,0.00,CLR,,0.42,WeatherDisplay:10.37,2013-06-29 17:12:00,
2013-06-29 12:14:00,67.2,59.7,29.71,NNE,16,7.9,13.8,77,0.00,CLR,,0.42,WeatherDisplay:10.37,2013-06-29 17:14:00,
2013-06-29 12:17:00,67.1,59.3,29.71,NE,49,6.8,12.7,76,0.00,CLR,,0.42,WeatherDisplay:10.37,2013-06-29 17:17:00,
2013-06-29 12:19:00,67.2,59.4,29.71,NE,56,5.5,9.2,76,0.00,CLR,,0.42,WeatherDisplay:10.37,2013-06-29 17:19:00,
2013-06-29 12:20:00,67.1,59.3,29.71,NNE,13,6.3,11.1,76,0.00,CLR,,0.42,WeatherDisplay:10.37,2013-06-29 17:20:00,
2013-06-29 12:22:00,67.1,59.3,29.71,NNE,27,7.3,13.8,76,0.00,CLR,,0.42,WeatherDisplay:10.37,2013-06-29 17:22:00,
2013-06-29 12:24:00,67.1,59.3,29.71,ENE,73,7.5,10.4,76,0.00,CLR,,0.42,WeatherDisplay:10.37,2013-06-29 17:24:00,
2013-06-29 12:25:00,67.1,59.3,29.71,NE,34,5.8,12.7,76,0.00,CLR,,0.42,WeatherDisplay:10.37,2013-06-29 17:25:00,
2013-06-29 12:27:00,67.0,59.5,29.71,NNE,25,6.0,11.1,77,0.00,CLR,,0.42,WeatherDisplay:10.37,2013-06-29 17:27:00,
2013-06-29 12:29:00,67.1,59.3,29.71,NNE,32,4.5,8.1,76,0.00,CLR,,0.42,WeatherDisplay:10.37,2013-06-29 17:29:00,
2013-06-29 12:30:00,67.3,59.8,29.71,NNE,14,8.6,13.8,77,0.00,CLR,,0.42,WeatherDisplay:10.37,2013-06-29 17:30:00,
2013-06-29 12:32:00,67.4,59.6,29.71,NE,38,5.0,10.8,76,0.00,CLR,,0.42,WeatherDisplay:10.37,2013-06-29 17:32:00,
2013-06-29 12:34:00,67.6,59.4,29.70,East,80,6.9,12.7,75,0.00,CLR,,0.42,WeatherDisplay:10.37,2013-06-29 17:34:00,
2013-06-29 12:35:00,67.7,59.9,29.71,NW,319,5.2,11.5,76,0.00,CLR,,0.42,WeatherDisplay:10.37,2013-06-29 17:35:00,
2013-06-29 12:36:00,67.7,59.9,29.71,NNW,333,5.7,11.5,76,0.00,CLR,,0.42,WeatherDisplay:10.37,2013-06-29 17:36:00,
2013-06-29 12:37:00,67.7,59.5,29.71,NNE,23,6.4,8.9,75,0.00,CLR,,0.42,WeatherDisplay:10.37,2013-06-29 17:37:00,
2013-06-29 12:39:00,67.8,60.0,29.71,NE,40,4.7,8.1,76,0.00,CLR,,0.42,WeatherDisplay:10.37,2013-06-29 17:39:00,
2013-06-29 12:40:00,67.9,60.1,29.71,NNE,32,5.8,9.2,76,0.00,CLR,,0.42,WeatherDisplay:10.37,2013-06-29 17:40:00,
2013-06-29 12:41:00,67.9,60.1,29.71,North,7,5.6,9.2,76,0.00,CLR,,0.42,WeatherDisplay:10.37,2013-06-29 17:41:00,
2013-06-29 12:42:00,68.0,59.8,29.71,NNE,17,4.0,9.2,75,0.00,CLR,,0.42,WeatherDisplay:10.37,2013-06-29 17:42:00,
2013-06-29 12:43:00,67.9,59.7,29.71,NNE,20,3.2,9.2,75,0.00,CLR,,0.42,WeatherDisplay:10.37,2013-06-29 17:43:00,
2013-06-29 12:44:00,68.1,60.2,29.71,NE,56,5.7,9.2,76,0.00,CLR,,0.42,WeatherDisplay:10.37,2013-06-29 17:44:00,
2013-06-29 12:46:00,68.3,60.4,29.71,NE,47,6.7,8.1,76,0.00,CLR,,0.42,WeatherDisplay:10.37,2013-06-29 17:46:00,
2013-06-29 12:48:00,68.4,60.5,29.71,East,79,3.4,9.2,76,0.00,CLR,,0.42,WeatherDisplay:10.37,2013-06-29 17:48:00,
2013-06-29 12:49:00,68.5,60.6,29.71,ENE,75,5.8,9.2,76,0.00,CLR,,0.42,WeatherDisplay:10.37,2013-06-29 17:49:00,
2013-06-29 12:51:00,68.8,60.9,29.71,ENE,58,6.7,9.2,76,0.00,CLR,,0.42,WeatherDisplay:10.37,2013-06-29 17:51:00,
2013-06-29 12:53:00,69.0,60.0,29.71,NE,56,7.1,12.7,73,0.00,CLR,,0.42,WeatherDisplay:10.37,2013-06-29 17:53:00,
2013-06-29 12:54:00,69.0,59.6,29.71,NE,48,9.3,15.0,72,0.00,CLR,,0.42,WeatherDisplay:10.37,2013-06-29 17:54:00,
2013-06-29 12:56:00,69.0,59.6,29.71,NNE,23,5.4,13.8,72,0.00,CLR,,0.42,WeatherDisplay:10.37,2013-06-29 17:56:00,
2013-06-29 12:58:00,68.6,59.2,29.71,NE,52,6.6,11.5,72,0.00,CLR,,0.42,WeatherDisplay:10.37,2013-06-29 17:58:00,
2013-06-29 12:59:00,68.6,59.2,29.71,NE,44,6.4,11.5,72,0.00,CLR,,0.42,WeatherDisplay:10.37,2013-06-29 17:59:00,
2013-06-29 13:00:00,68.6,59.6,29.71,NNE,32,4.4,13.8,73,0.00,CLR,,0.42,WeatherDisplay:10.37,2013-06-29 18:00:00,
2013-06-29 13:01:00,68.4,59.8,29.72,ESE,117,4.2,8.1,74,0.00,CLR,,0.42,WeatherDisplay:10.37,2013-06-29 18:01:00,
2013-06-29 13:02:00,68.4,59.8,29.72,NE,45,6.8,9.8,74,0.00,CLR,,0.42,WeatherDisplay:10.37,2013-06-29 18:02:00,
2013-06-29 13:03:00,68.3,59.3,29.72,NE,54,6.3,8.1,73,0.00,CLR,,0.42,WeatherDisplay:10.37,2013-06-29 18:03:00,
2013-06-29 13:04:00,68.2,59.6,29.72,East,79,5.1,8.1,74,0.00,CLR,,0.42,WeatherDisplay:10.37,2013-06-29 18:04:00,
2013-06-29 13:05:00,68.1,59.5,29.72,East,95,4.0,6.9,74,0.00,CLR,,0.42,WeatherDisplay:10.37,2013-06-29 18:05:00,
2013-06-29 13:06:00,67.9,59.3,29.72,NE,41,5.6,6.9,74,0.00,CLR,,0.42,WeatherDisplay:10.37,2013-06-29 18:06:00,
2013-06-29 13:07:00,68.0,59.4,29.72,NNE,14,5.3,6.9,74,0.00,CLR,,0.42,WeatherDisplay:10.37,2013-06-29 18:07:00,
2013-06-29 13:08:00,67.7,59.1,29.72,ENE,72,6.4,8.1,74,0.00,CLR,,0.42,WeatherDisplay:10.37,2013-06-29 18:08:00,
2013-06-29 13:09:00,67.7,59.1,29.72,ENE,66,6.5,10.4,74,0.00,CLR,,0.42,WeatherDisplay:10.37,2013-06-29 18:09:00,
2013-06-29 13:10:00,67.7,59.1,29.72,East,80,3.2,4.6,74,0.00,CLR,,0.42,WeatherDisplay:10.37,2013-06-29 18:10:00,
2013-06-29 13:12:00,67.7,59.5,29.72,East,82,4.8,8.1,75,0.00,CLR,,0.42,WeatherDisplay:10.37,2013-06-29 18:12:00,
2013-06-29 13:14:00,67.4,59.2,29.72,North,6,4.6,6.9,75,0.00,CLR,,0.42,WeatherDisplay:10.37,2013-06-29 18:14:00,
2013-06-29 13:15:00,67.4,59.2,29.72,NNE,27,3.6,6.9,75,0.00,CLR,,0.42,WeatherDisplay:10.37,2013-06-29 18:15:00,
2013-06-29 13:17:00,67.4,59.2,29.72,NNE,16,5.2,10.4,75,0.00,CLR,,0.42,WeatherDisplay:10.37,2013-06-29 18:17:00,
2013-06-29 13:19:00,67.3,58.7,29.72,WNW,289,8.5,13.8,74,0.00,CLR,,0.42,WeatherDisplay:10.37,2013-06-29 18:19:00,
2013-06-29 13:21:00,67.2,59.0,29.72,ENE,75,4.9,12.7,75,0.00,CLR,,0.42,WeatherDisplay:10.37,2013-06-29 18:21:00,
2013-06-29 13:22:00,67.1,58.9,29.72,NW,320,5.4,10.4,75,0.00,CLR,,0.42,WeatherDisplay:10.37,2013-06-29 18:22:00,
2013-06-29 13:24:00,67.1,59.3,29.72,SW,230,3.8,6.9,76,0.00,CLR,,0.42,WeatherDisplay:10.37,2013-06-29 18:24:00,
2013-06-29 13:25:00,67.2,59.4,29.72,NE,47,3.1,6.9,76,0.00,CLR,,0.42,WeatherDisplay:10.37,2013-06-29 18:25:00,
2013-06-29 13:26:00,67.3,59.8,29.72,North,360,5.1,5.1,77,0.00,CLR,,0.42,WeatherDisplay:10.37,2013-06-29 18:26:00,
2013-06-29 13:27:00,67.4,59.9,29.72,ENE,71,5.9,8.1,77,0.00,CLR,,0.42,WeatherDisplay:10.37,2013-06-29 18:27:00,
2013-06-29 13:29:00,67.7,59.9,29.72,ENE,69,6.1,9.2,76,0.00,CLR,,0.42,WeatherDisplay:10.37,2013-06-29 18:29:00,
2013-06-29 13:30:00,67.7,59.9,29.72,ENE,64,4.8,8.1,76,0.00,CLR,,0.42,WeatherDisplay:10.37,2013-06-29 18:30:00,
2013-06-29 13:31:00,67.7,59.9,29.72,North,8,4.6,8.1,76,0.00,CLR,,0.42,WeatherDisplay:10.37,2013-06-29 18:31:00,
2013-06-29 13:32:00,67.9,59.7,29.72,ENE,73,7.3,11.5,75,0.00,CLR,,0.42,WeatherDisplay:10.37,2013-06-29 18:32:00,
2013-06-29 13:33:00,67.9,59.7,29.72,NNE,31,7.0,13.1,75,0.00,CLR,,0.42,WeatherDisplay:10.37,2013-06-29 18:33:00,
2013-06-29 13:34:00,68.0,59.8,29.72,WNW,288,2.9,8.1,75,0.00,CLR,,0.42,WeatherDisplay:10.37,2013-06-29 18:34:00,
2013-06-29 13:35:00,68.1,59.9,29.72,North,0,4.1,6.0,75,0.00,CLR,,0.42,WeatherDisplay:10.37,2013-06-29 18:35:00,
2013-06-29 13:36:00,68.2,60.0,29.72,NNE,18,4.9,6.9,75,0.00,CLR,,0.42,WeatherDisplay:10.37,2013-06-29 18:36:00,
2013-06-29 13:37:00,68.3,60.1,29.72,ENE,72,5.5,8.1,75,0.00,CLR,,0.42,WeatherDisplay:10.37,2013-06-29 18:37:00,
2013-06-29 13:38:00,68.4,60.2,29.72,NNE,16,4.7,8.1,75,0.00,CLR,,0.42,WeatherDisplay:10.37,2013-06-29 18:38:00,
2013-06-29 13:39:00,68.5,59.9,29.72,NNE,32,6.6,7.6,74,0.00,CLR,,0.42,WeatherDisplay:10.37,2013-06-29 18:39:00,
2013-06-29 13:41:00,68.7,59.7,29.72,NNE,24,6.3,12.7,73,0.00,CLR,,0.42,WeatherDisplay:10.37,2013-06-29 18:41:00,
2013-06-29 13:43:00,68.7,59.3,29.72,NE,55,5.5,9.2,72,0.00,CLR,,0.42,WeatherDisplay:10.37,2013-06-29 18:43:00,
2013-06-29 13:44:00,68.8,59.0,29.72,North,360,5.7,9.2,71,0.00,CLR,,0.42,WeatherDisplay:10.37,2013-06-29 18:44:00,
2013-06-29 13:46:00,68.9,59.5,29.72,NNE,13,5.7,10.7,72,0.00,CLR,,0.42,WeatherDisplay:10.37,2013-06-29 18:46:00,
2013-06-29 13:48:00,68.9,59.1,29.72,ENE,66,6.4,12.7,71,0.00,CLR,,0.42,WeatherDisplay:10.37,2013-06-29 18:48:00,
2013-06-29 13:49:00,68.9,59.1,29.72,NNE,31,6.7,12.0,71,0.00,CLR,,0.42,WeatherDisplay:10.37,2013-06-29 18:49:00,
2013-06-29 13:50:00,68.8,59.0,29.72,North,4,6.6,11.5,71,0.00,CLR,,0.42,WeatherDisplay:10.37,2013-06-29 18:50:00,
2013-06-29 13:51:00,68.9,59.1,29.72,NNE,17,6.6,11.5,71,0.00,CLR,,0.42,WeatherDisplay:10.37,2013-06-29 18:51:00,
2013-06-29 13:53:00,68.9,59.1,29.72,North,10,5.7,11.5,71,0.00,CLR,,0.42,WeatherDisplay:10.37,2013-06-29 18:53:00,
2013-06-29 13:54:00,69.0,59.2,29.72,NNE,16,5.0,6.9,71,0.00,CLR,,0.42,WeatherDisplay:10.37,2013-06-29 18:54:00,
2013-06-29 13:55:00,68.9,59.1,29.72,North,8,4.6,9.2,71,0.00,CLR,,0.42,WeatherDisplay:10.37,2013-06-29 18:55:00,
2013-06-29 13:56:00,69.0,59.2,29.72,ENE,75,5.1,8.1,71,0.00,CLR,,0.42,WeatherDisplay:10.37,2013-06-29 18:56:00,
2013-06-29 13:57:00,68.9,59.1,29.72,NW,315,4.1,8.1,71,0.00,CLR,,0.42,WeatherDisplay:10.37,2013-06-29 18:57:00,
2013-06-29 13:58:00,68.9,59.5,29.72,North,360,3.5,8.0,72,0.00,CLR,,0.42,WeatherDisplay:10.37,2013-06-29 18:58:00,
2013-06-29 13:59:00,68.7,59.3,29.72,NE,34,6.2,9.6,72,0.00,CLR,,0.42,WeatherDisplay:10.37,2013-06-29 18:59:00,
2013-06-29 14:00:00,68.7,58.9,29.72,North,360,7.3,10.4,71,0.00,CLR,,0.42,WeatherDisplay:10.37,2013-06-29 19:00:00,
2013-06-29 14:01:00,68.6,58.8,29.72,North,360,6.9,11.5,71,0.00,CLR,,0.42,WeatherDisplay:10.37,2013-06-29 19:01:00,
2013-06-29 14:02:00,68.5,58.7,29.72,NNE,16,6.5,11.5,71,0.00,CLR,,0.42,WeatherDisplay:10.37,2013-06-29 19:02:00,
2013-06-29 14:04:00,68.4,58.6,29.72,NNE,31,6.7,12.7,71,0.00,CLR,,0.42,WeatherDisplay:10.37,2013-06-29 19:04:00,
2013-06-29 14:05:00,68.0,58.6,29.72,East,79,5.6,11.5,72,0.00,CLR,,0.42,WeatherDisplay:10.37,2013-06-29 19:05:00,
2013-06-29 14:06:00,68.0,58.6,29.72,NE,49,7.8,12.7,72,0.00,CLR,,0.42,WeatherDisplay:10.37,2013-06-29 19:06:00,
2013-06-29 14:07:00,67.9,58.5,29.72,NNE,17,4.0,10.4,72,0.00,CLR,,0.42,WeatherDisplay:10.37,2013-06-29 19:07:00,
2013-06-29 14:09:00,67.8,58.8,29.73,NE,49,4.6,8.1,73,0.00,CLR,,0.42,WeatherDisplay:10.37,2013-06-29 19:09:00,
2013-06-29 14:11:00,67.7,58.3,29.72,NNW,344,6.7,11.3,72,0.00,CLR,,0.42,WeatherDisplay:10.37,2013-06-29 19:11:00,
2013-06-29 14:12:00,67.5,58.2,29.73,NE,41,6.4,7.3,72,0.00,CLR,,0.42,WeatherDisplay:10.37,2013-06-29 19:12:00,
2013-06-29 14:14:00,67.5,58.2,29.73,North,356,5.5,9.2,72,0.00,CLR,,0.42,WeatherDisplay:10.37,2013-06-29 19:14:00,
2013-06-29 14:15:00,67.5,58.2,29.73,NE,48,4.9,9.2,72,0.00,CLR,,0.42,WeatherDisplay:10.37,2013-06-29 19:15:00,
2013-06-29 14:16:00,67.5,58.2,29.73,NNE,28,7.1,10.4,72,0.00,CLR,,0.42,WeatherDisplay:10.37,2013-06-29 19:16:00,
2013-06-29 14:18:00,67.5,58.2,29.72,NE,41,6.2,9.6,72,0.00,CLR,,0.42,WeatherDisplay:10.37,2013-06-29 19:18:00,
2013-06-29 14:19:00,67.4,58.1,29.72,NE,55,6.0,11.5,72,0.00,CLR,,0.42,WeatherDisplay:10.37,2013-06-29 19:19:00,
2013-06-29 14:20:00,67.5,58.2,29.72,NE,38,6.3,11.5,72,0.00,CLR,,0.42,WeatherDisplay:10.37,2013-06-29 19:20:00,
2013-06-29 14:21:00,67.5,58.2,29.72,NNE,24,6.1,12.7,72,0.00,CLR,,0.42,WeatherDisplay:10.37,2013-06-29 19:21:00,
2013-06-29 14:22:00,67.4,58.1,29.72,NNE,14,4.9,12.7,72,0.00,CLR,,0.42,WeatherDisplay:10.37,2013-06-29 19:22:00,
2013-06-29 14:23:00,67.6,58.2,29.72,East,92,4.2,8.1,72,0.00,CLR,,0.42,WeatherDisplay:10.37,2013-06-29 19:23:00,
2013-06-29 14:24:00,67.5,58.2,29.72,ENE,73,3.2,8.1,72,0.00,CLR,,0.42,WeatherDisplay:10.37,2013-06-29 19:24:00,
2013-06-29 14:25:00,67.5,58.2,29.72,North,359,2.7,8.1,72,0.00,CLR,,0.42,WeatherDisplay:10.37,2013-06-29 19:25:00,
2013-06-29 14:27:00,67.8,58.8,29.72,North,7,6.5,10.0,73,0.00,CLR,,0.42,WeatherDisplay:10.37,2013-06-29 19:27:00,
2013-06-29 14:29:00,68.0,58.2,29.72,NNE,32,6.4,11.5,71,0.00,CLR,,0.42,WeatherDisplay:10.37,2013-06-29 19:29:00,
2013-06-29 14:30:00,68.1,58.7,29.72,NNE,23,4.6,10.4,72,0.00,CLR,,0.42,WeatherDisplay:10.37,2013-06-29 19:30:00,
2013-06-29 14:32:00,68.1,58.3,29.72,NE,35,7.5,9.2,71,0.00,CLR,,0.42,WeatherDisplay:10.37,2013-06-29 19:32:00,
2013-06-29 14:34:00,68.3,58.5,29.72,ESE,112,5.3,9.2,71,0.00,CLR,,0.42,WeatherDisplay:10.37,2013-06-29 19:34:00,
2013-06-29 14:35:00,68.3,58.5,29.72,East,83,3.8,6.9,71,0.00,CLR,,0.42,WeatherDisplay:10.37,2013-06-29 19:35:00,
2013-06-29 14:37:00,68.5,58.7,29.73,NNW,344,5.9,9.2,71,0.00,CLR,,0.42,WeatherDisplay:10.37,2013-06-29 19:37:00,
2013-06-29 14:39:00,68.5,58.3,29.72,ENE,66,6.4,8.1,70,0.00,CLR,,0.42,WeatherDisplay:10.37,2013-06-29 19:39:00,
2013-06-29 14:40:00,68.6,58.4,29.72,NNE,30,5.7,9.2,70,0.00,CLR,,0.42,WeatherDisplay:10.37,2013-06-29 19:40:00,
2013-06-29 14:42:00,68.8,58.6,29.72,NE,40,3.8,8.1,70,0.00,CLR,,0.42,WeatherDisplay:10.37,2013-06-29 19:42:00,
2013-06-29 14:44:00,69.3,58.7,29.72,ENE,71,6.2,9.2,69,0.00,CLR,,0.42,WeatherDisplay:10.37,2013-06-29 19:44:00,
2013-06-29 14:45:00,69.5,58.9,29.73,North,6,7.1,11.9,69,0.00,CLR,,0.42,WeatherDisplay:10.37,2013-06-29 19:45:00,
2013-06-29 14:46:00,69.6,58.6,29.72,NNE,20,6.8,10.1,68,0.00,CLR,,0.42,WeatherDisplay:10.37,2013-06-29 19:46:00,
2013-06-29 14:47:00,69.9,58.9,29.72,NE,42,2.6,8.1,68,0.00,CLR,,0.42,WeatherDisplay:10.37,2013-06-29 19:47:00,
2013-06-29 14:48:00,70.0,59.0,29.72,ENE,68,3.4,13.4,68,0.00,CLR,,0.42,WeatherDisplay:10.37,2013-06-29 19:48:00,
2013-06-29 14:49:00,70.1,58.6,29.72,ENE,62,4.5,8.1,67,0.00,CLR,,0.42,WeatherDisplay:10.37,2013-06-29 19:49:00,
2013-06-29 14:50:00,70.3,58.8,29.73,East,89,4.3,6.5,67,0.00,CLR,,0.42,WeatherDisplay:10.37,2013-06-29 19:50:00,
2013-06-29 14:51:00,70.3,58.0,29.72,NNE,32,7.1,16.7,65,0.00,CLR,,0.42,WeatherDisplay:10.37,2013-06-29 19:51:00,
2013-06-29 14:53:00,70.4,58.1,29.73,NNE,13,6.4,16.1,65,0.00,CLR,,0.42,WeatherDisplay:10.37,2013-06-29 19:53:00,
2013-06-29 14:54:00,70.3,57.5,29.73,NNW,344,6.7,11.5,64,0.00,CLR,,0.42,WeatherDisplay:10.37,2013-06-29 19:54:00,
2013-06-29 14:55:00,70.1,57.8,29.73,East,89,6.3,8.1,65,0.00,CLR,,0.42,WeatherDisplay:10.37,2013-06-29 19:55:00,
2013-06-29 14:56:00,70.0,58.1,29.73,NW,323,4.5,7.4,66,0.00,CLR,,0.42,WeatherDisplay:10.37,2013-06-29 19:56:00,
2013-06-29 14:58:00,69.9,58.0,29.73,NE,40,6.8,12.7,66,0.00,CLR,,0.42,WeatherDisplay:10.37,2013-06-29 19:58:00,
2013-06-29 14:59:00,70.0,58.1,29.73,ENE,68,4.0,8.1,66,0.00,CLR,,0.42,WeatherDisplay:10.37,2013-06-29 19:59:00,
2013-06-29 15:01:00,69.9,58.0,29.73,ESE,106,5.5,10.4,66,0.00,CLR,,0.42,WeatherDisplay:10.37,2013-06-29 20:01:00,
2013-06-29 15:03:00,69.9,58.0,29.73,ENE,65,6.2,15.0,66,0.00,CLR,,0.42,WeatherDisplay:10.37,2013-06-29 20:03:00,
2013-06-29 15:04:00,69.8,57.9,29.73,East,90,5.7,8.4,66,0.00,CLR,,0.42,WeatherDisplay:10.37,2013-06-29 20:04:00,
2013-06-29 15:06:00,69.9,58.0,29.73,NE,56,6.7,11.5,66,0.00,CLR,,0.42,WeatherDisplay:10.37,2013-06-29 20:06:00,
2013-06-29 15:08:00,69.6,57.3,29.73,NE,40,5.8,12.7,65,0.00,CLR,,0.42,WeatherDisplay:10.37,2013-06-29 20:08:00,
2013-06-29 15:09:00,69.7,57.8,29.73,NNE,28,7.3,11.5,66,0.00,CLR,,0.42,WeatherDisplay:10.37,2013-06-29 20:09:00,
2013-06-29 15:11:00,69.8,57.9,29.73,NE,55,7.6,15.3,66,0.00,CLR,,0.42,WeatherDisplay:10.37,2013-06-29 20:11:00,
2013-06-29 15:12:00,70.0,57.7,29.73,ESE,106,7.6,15.0,65,0.00,CLR,,0.42,WeatherDisplay:10.37,2013-06-29 20:12:00,
2013-06-29 15:13:00,70.2,58.3,29.73,NE,45,5.4,9.2,66,0.00,CLR,,0.42,WeatherDisplay:10.37,2013-06-29 20:13:00,
2013-06-29 15:14:00,70.3,58.0,29.73,ENE,73,3.8,9.2,65,0.00,CLR,,0.42,WeatherDisplay:10.37,2013-06-29 20:14:00,
2013-06-29 15:16:00,70.6,57.4,29.73,NE,56,6.0,17.3,63,0.00,CLR,,0.42,WeatherDisplay:10.37,2013-06-29 20:16:00,
2013-06-29 15:17:00,70.6,56.9,29.73,NE,42,7.6,13.8,62,0.00,CLR,,0.42,WeatherDisplay:10.37,2013-06-29 20:17:00,
2013-06-29 15:18:00,70.7,57.0,29.73,ENE,71,7.0,11.5,62,0.00,CLR,,0.42,WeatherDisplay:10.37,2013-06-29 20:18:00,
2013-06-29 15:19:00,70.8,57.1,29.73,NE,55,7.2,11.7,62,0.00,CLR,,0.42,WeatherDisplay:10.37,2013-06-29 20:19:00,
2013-06-29 15:21:00,70.9,57.2,29.73,NE,34,6.9,10.4,62,0.00,CLR,,0.42,WeatherDisplay:10.37,2013-06-29 20:21:00,
2013-06-29 15:22:00,70.8,57.1,29.73,North,360,9.2,11.8,62,0.00,CLR,,0.42,WeatherDisplay:10.37,2013-06-29 20:22:00,
2013-06-29 15:23:00,71.0,56.4,29.73,NNE,30,10.3,16.1,60,0.00,CLR,,0.42,WeatherDisplay:10.37,2013-06-29 20:23:00,
2013-06-29 15:24:00,71.0,55.9,29.73,ENE,71,6.9,13.8,59,0.00,CLR,,0.42,WeatherDisplay:10.37,2013-06-29 20:24:00,
2013-06-29 15:27:00,71.3,56.2,29.73,North,6,7.6,12.7,59,0.00,CLR,,0.42,WeatherDisplay:10.37,2013-06-29 20:27:00,
2013-06-29 15:28:00,71.2,55.2,29.73,NE,35,7.4,13.8,57,0.00,CLR,,0.42,WeatherDisplay:10.37,2013-06-29 20:28:00,
2013-06-29 15:29:00,71.4,56.3,29.73,ESE,104,5.2,11.5,59,0.00,CLR,,0.42,WeatherDisplay:10.37,2013-06-29 20:29:00,
2013-06-29 15:30:00,71.4,56.3,29.73,North,11,5.0,11.5,59,0.00,CLR,,0.42,WeatherDisplay:10.37,2013-06-29 20:30:00,
2013-06-29 15:32:00,71.7,56.6,29.73,NNW,332,5.8,10.4,59,0.00,CLR,,0.42,WeatherDisplay:10.37,2013-06-29 20:32:00,
2013-06-29 15:33:00,71.6,56.5,29.73,NE,37,5.0,11.5,59,0.00,CLR,,0.42,WeatherDisplay:10.37,2013-06-29 20:33:00,
2013-06-29 15:34:00,71.8,56.7,29.73,ENE,73,4.7,9.0,59,0.00,CLR,,0.42,WeatherDisplay:10.37,2013-06-29 20:34:00,
2013-06-29 15:35:00,71.8,56.7,29.73,ENE,73,4.7,9.0,59,0.00,CLR,,0.42,WeatherDisplay:10.37,2013-06-29 20:35:00,
2013-06-29 15:37:00,72.1,57.0,29.73,East,95,5.5,8.1,59,0.00,CLR,,0.42,WeatherDisplay:10.37,2013-06-29 20:37:00,
2013-06-29 15:38:00,72.1,56.5,29.73,NE,51,6.5,11.5,58,0.00,CLR,,0.42,WeatherDisplay:10.37,2013-06-29 20:38:00,
2013-06-29 15:39:00,72.3,55.7,29.73,ESE,109,8.7,11.5,56,0.00,CLR,,0.42,WeatherDisplay:10.37,2013-06-29 20:39:00,
2013-06-29 15:40:00,72.3,55.7,29.73,NNE,24,8.0,11.5,56,0.00,CLR,,0.42,WeatherDisplay:10.37,2013-06-29 20:40:00,
2013-06-29 15:42:00,72.4,55.8,29.73,ENE,71,4.1,9.2,56,0.00,CLR,,0.42,WeatherDisplay:10.37,2013-06-29 20:42:00,
2013-06-29 15:43:00,72.3,56.2,29.73,NNE,16,4.9,8.1,57,0.00,CLR,,0.42,WeatherDisplay:10.37,2013-06-29 20:43:00,
2013-06-29 15:44:00,72.7,57.1,29.73,East,85,6.6,10.4,58,0.00,CLR,,0.42,WeatherDisplay:10.37,2013-06-29 20:44:00,
2013-06-29 15:45:00,72.5,56.4,29.73,NNE,31,5.6,12.7,57,0.00,CLR,,0.42,WeatherDisplay:10.37,2013-06-29 20:45:00,
2013-06-29 15:48:00,72.8,56.7,29.73,South,169,5.4,9.2,57,0.00,CLR,,0.42,WeatherDisplay:10.37,2013-06-29 20:48:00,
2013-06-29 15:50:00,72.8,56.2,29.73,ESE,103,6.2,10.4,56,0.00,CLR,,0.42,WeatherDisplay:10.37,2013-06-29 20:50:00,
2013-06-29 15:53:00,72.6,56.0,29.73,ENE,71,6.2,10.4,56,0.00,CLR,,0.42,WeatherDisplay:10.37,2013-06-29 20:53:00,
2013-06-29 15:54:00,72.8,56.2,29.73,NNE,32,6.1,10.4,56,0.00,CLR,,0.42,WeatherDisplay:10.37,2013-06-29 20:54:00,
2013-06-29 15:55:00,72.8,56.7,29.73,ESE,106,2.1,10.4,57,0.00,CLR,,0.42,WeatherDisplay:10.37,2013-06-29 20:55:00,
2013-06-29 15:56:00,72.9,56.3,29.73,NE,56,5.2,6.5,56,0.00,CLR,,0.42,WeatherDisplay:10.37,2013-06-29 20:56:00,
2013-06-29 15:58:00,72.8,56.7,29.73,NNE,17,0.7,2.3,57,0.00,CLR,,0.42,WeatherDisplay:10.37,2013-06-29 20:58:00,
2013-06-29 15:59:00,72.8,57.2,29.73,NE,44,3.0,6.1,58,0.00,CLR,,0.42,WeatherDisplay:10.37,2013-06-29 20:59:00,
2013-06-29 16:00:00,72.8,56.7,29.74,NNE,23,5.6,6.9,57,0.00,CLR,,0.42,WeatherDisplay:10.37,2013-06-29 21:00:00,
2013-06-29 16:01:00,72.7,56.1,29.74,North,3,6.2,9.2,56,0.00,CLR,,0.42,WeatherDisplay:10.37,2013-06-29 21:01:00,
2013-06-29 16:03:00,72.6,55.5,29.74,NE,52,7.1,14.2,55,0.00,CLR,,0.42,WeatherDisplay:10.37,2013-06-29 21:03:00,
2013-06-29 16:04:00,72.5,55.4,29.74,NNW,332,7.5,13.8,55,0.00,CLR,,0.42,WeatherDisplay:10.37,2013-06-29 21:04:00,
2013-06-29 16:05:00,72.3,55.7,29.74,North,360,6.0,10.4,56,0.00,CLR,,0.42,WeatherDisplay:10.37,2013-06-29 21:05:00,
2013-06-29 16:06:00,72.2,55.6,29.74,NE,40,5.6,10.4,56,0.00,CLR,,0.42,WeatherDisplay:10.37,2013-06-29 21:06:00,
2013-06-29 16:08:00,71.9,55.3,29.74,ESE,112,4.4,10.4,56,0.00,CLR,,0.42,WeatherDisplay:10.37,2013-06-29 21:08:00,
2013-06-29 16:09:00,72.0,55.4,29.74,ESE,104,3.1,5.8,56,0.00,CLR,,0.42,WeatherDisplay:10.37,2013-06-29 21:09:00,
2013-06-29 16:11:00,71.5,55.0,29.74,East,82,5.3,8.1,56,0.00,CLR,,0.42,WeatherDisplay:10.37,2013-06-29 21:11:00,
2013-06-29 16:12:00,71.6,55.6,29.74,NE,37,6.4,8.1,57,0.00,CLR,,0.42,WeatherDisplay:10.37,2013-06-29 21:12:00,
2013-06-29 16:14:00,71.5,55.9,29.74,East,93,5.3,9.2,58,0.00,CLR,,0.42,WeatherDisplay:10.37,2013-06-29 21:14:00,
2013-06-29 16:15:00,71.5,56.4,29.74,NNE,20,5.7,9.2,59,0.00,CLR,,0.42,WeatherDisplay:10.37,2013-06-29 21:15:00,
2013-06-29 16:16:00,71.5,56.4,29.74,ESE,123,7.0,10.4,59,0.00,CLR,,0.42,WeatherDisplay:10.37,2013-06-29 21:16:00,
2013-06-29 16:17:00,71.5,56.4,29.74,ESE,110,5.2,10.4,59,0.00,CLR,,0.42,WeatherDisplay:10.37,2013-06-29 21:17:00,
2013-06-29 16:19:00,71.8,56.7,29.74,East,79,4.5,10.4,59,0.00,CLR,,0.42,WeatherDisplay:10.37,2013-06-29 21:19:00,
2013-06-29 16:20:00,71.8,56.7,29.74,East,85,4.1,10.4,59,0.00,CLR,,0.42,WeatherDisplay:10.37,2013-06-29 21:20:00,
2013-06-29 16:21:00,72.1,57.0,29.74,ENE,62,5.5,11.5,59,0.00,CLR,,0.42,WeatherDisplay:10.37,2013-06-29 21:21:00,
2013-06-29 16:22:00,72.1,56.5,29.74,NE,51,6.0,11.5,58,0.00,CLR,,0.42,WeatherDisplay:10.37,2013-06-29 21:22:00,
2013-06-29 16:24:00,72.4,56.8,29.74,ENE,59,5.6,9.2,58,0.00,CLR,,0.42,WeatherDisplay:10.37,2013-06-29 21:24:00,
2013-06-29 16:25:00,72.4,56.8,29.74,ENE,59,5.5,9.2,58,0.00,CLR,,0.42,WeatherDisplay:10.37,2013-06-29 21:25:00,
2013-06-29 16:26:00,72.1,56.5,29.74,North,360,2.9,6.9,58,0.00,CLR,,0.42,WeatherDisplay:10.37,2013-06-29 21:26:00,
2013-06-29 16:27:00,72.3,56.7,29.74,ESE,121,3.6,8.1,58,0.00,CLR,,0.42,WeatherDisplay:10.37,2013-06-29 21:27:00,
2013-06-29 16:29:00,72.1,57.0,29.74,North,3,3.5,6.9,59,0.00,CLR,,0.42,WeatherDisplay:10.37,2013-06-29 21:29:00,
2013-06-29 16:30:00,72.1,57.0,29.74,NNE,17,4.0,6.9,59,0.00,CLR,,0.42,WeatherDisplay:10.37,2013-06-29 21:30:00,
2013-06-29 16:32:00,71.9,56.8,29.74,NW,325,3.4,9.2,59,0.00,CLR,,0.42,WeatherDisplay:10.37,2013-06-29 21:32:00,
2013-06-29 16:33:00,71.7,57.1,29.74,NNE,16,4.0,5.8,60,0.00,CLR,,0.42,WeatherDisplay:10.37,2013-06-29 21:33:00,
2013-06-29 16:35:00,71.5,56.9,29.74,North,10,5.8,8.1,60,0.00,CLR,,0.42,WeatherDisplay:10.37,2013-06-29 21:35:00,
2013-06-29 16:37:00,71.2,57.1,29.74,NE,34,3.8,5.8,61,0.00,CLR,,0.42,WeatherDisplay:10.37,2013-06-29 21:37:00,
2013-06-29 16:38:00,70.8,57.1,29.74,North,3,3.8,6.9,62,0.00,CLR,,0.42,WeatherDisplay:10.37,2013-06-29 21:38:00,
2013-06-29 16:40:00,70.8,57.1,29.74,NNE,28,3.7,8.1,62,0.00,CLR,,0.42,WeatherDisplay:10.37,2013-06-29 21:40:00,
2013-06-29 16:42:00,70.6,56.9,29.74,South,178,3.6,6.9,62,0.00,CLR,,0.42,WeatherDisplay:10.37,2013-06-29 21:42:00,
2013-06-29 16:43:00,70.6,57.4,29.74,NNE,16,2.2,4.6,63,0.00,CLR,,0.42,WeatherDisplay:10.37,2013-06-29 21:43:00,
2013-06-29 16:45:00,70.4,57.2,29.74,NNW,343,5.1,8.1,63,0.00,CLR,,0.42,WeatherDisplay:10.37,2013-06-29 21:45:00,
2013-06-29 16:46:00,70.3,57.1,29.74,NE,42,4.8,9.4,63,0.00,CLR,,0.42,WeatherDisplay:10.37,2013-06-29 21:46:00,
2013-06-29 16:47:00,70.3,57.1,29.74,North,359,6.6,9.2,63,0.00,CLR,,0.42,WeatherDisplay:10.37,2013-06-29 21:47:00,
2013-06-29 16:48:00,70.1,56.9,29.74,North,10,3.4,6.9,63,0.00,CLR,,0.42,WeatherDisplay:10.37,2013-06-29 21:48:00,
2013-06-29 16:50:00,70.2,57.0,29.74,NNE,17,5.4,6.9,63,0.00,CLR,,0.42,WeatherDisplay:10.37,2013-06-29 21:50:00,
2013-06-29 16:51:00,70.2,57.0,29.74,NE,37,6.1,6.9,63,0.00,CLR,,0.42,WeatherDisplay:10.37,2013-06-29 21:51:00,
2013-06-29 16:52:00,70.1,56.9,29.74,NNW,346,3.2,9.2,63,0.00,CLR,,0.42,WeatherDisplay:10.37,2013-06-29 21:52:00,
2013-06-29 16:53:00,70.2,57.4,29.74,North,357,1.6,3.5,64,0.00,CLR,,0.42,WeatherDisplay:10.37,2013-06-29 21:53:00,
2013-06-29 16:55:00,70.0,57.3,29.74,North,0,3.4,5.8,64,0.00,CLR,,0.42,WeatherDisplay:10.37,2013-06-29 21:55:00,
2013-06-29 16:56:00,70.0,57.3,29.74,North,11,3.4,5.8,64,0.00,CLR,,0.42,WeatherDisplay:10.37,2013-06-29 21:56:00,
2013-06-29 16:57:00,70.2,57.9,29.74,ENE,65,5.0,10.1,65,0.00,CLR,,0.42,WeatherDisplay:10.37,2013-06-29 21:57:00,
2013-06-29 16:59:00,70.2,57.9,29.74,NW,319,4.4,6.9,65,0.00,CLR,,0.42,WeatherDisplay:10.37,2013-06-29 21:59:00,
2013-06-29 17:00:00,70.2,57.4,29.74,NNW,335,6.9,8.1,64,0.00,CLR,,0.42,WeatherDisplay:10.37,2013-06-29 22:00:00,
2013-06-29 17:01:00,70.2,57.4,29.74,NNW,330,6.0,8.1,64,0.00,CLR,,0.42,WeatherDisplay:10.37,2013-06-29 22:01:00,
2013-06-29 17:02:00,70.2,57.4,29.74,North,359,5.2,9.2,64,0.00,CLR,,0.42,WeatherDisplay:10.37,2013-06-29 22:02:00,
2013-06-29 17:04:00,70.1,57.4,29.74,ENE,71,5.7,9.2,64,0.00,CLR,,0.42,WeatherDisplay:10.37,2013-06-29 22:04:00,
2013-06-29 17:06:00,69.9,57.2,29.74,NE,34,4.9,6.9,64,0.00,CLR,,0.42,WeatherDisplay:10.37,2013-06-29 22:06:00,
2013-06-29 17:07:00,69.8,57.1,29.74,West,271,4.5,8.1,64,0.00,CLR,,0.42,WeatherDisplay:10.37,2013-06-29 22:07:00,
2013-06-29 17:09:00,69.6,57.3,29.74,North,3,3.0,8.1,65,0.00,CLR,,0.42,WeatherDisplay:10.37,2013-06-29 22:09:00,
2013-06-29 17:11:00,69.5,57.2,29.74,NNE,30,4.1,4.6,65,0.00,CLR,,0.42,WeatherDisplay:10.37,2013-06-29 22:11:00,
2013-06-29 17:12:00,69.4,57.1,29.74,North,354,3.0,4.6,65,0.00,CLR,,0.42,WeatherDisplay:10.37,2013-06-29 22:12:00,
2013-06-29 17:15:00,69.3,57.0,29.75,North,3,5.1,9.2,65,0.00,CLR,,0.42,WeatherDisplay:10.37,2013-06-29 22:15:00,
2013-06-29 17:16:00,69.3,57.5,29.75,NE,42,5.5,12.6,66,0.00,CLR,,0.42,WeatherDisplay:10.37,2013-06-29 22:16:00,
2013-06-29 17:17:00,69.2,57.4,29.75,North,7,7.8,8.1,66,0.00,CLR,,0.42,WeatherDisplay:10.37,2013-06-29 22:17:00,
2013-06-29 17:20:00,69.0,57.2,29.75,NE,44,5.0,5.0,66,0.00,CLR,,0.42,WeatherDisplay:10.37,2013-06-29 22:20:00,
2013-06-29 17:21:00,69.0,57.2,29.75,NE,44,5.5,9.2,66,0.00,CLR,,0.42,WeatherDisplay:10.37,2013-06-29 22:21:00,
2013-06-29 17:22:00,68.9,57.1,29.75,NE,38,5.5,9.2,66,0.00,CLR,,0.42,WeatherDisplay:10.37,2013-06-29 22:22:00,
2013-06-29 17:25:00,69.0,57.2,29.75,NW,304,1.5,5.8,66,0.00,CLR,,0.42,WeatherDisplay:10.37,2013-06-29 22:25:00,
2013-06-29 17:26:00,68.9,57.1,29.75,NE,51,4.0,5.8,66,0.00,CLR,,0.42,WeatherDisplay:10.37,2013-06-29 22:26:00,
2013-06-29 17:27:00,68.9,57.1,29.75,ENE,59,3.2,5.8,66,0.00,CLR,,0.42,WeatherDisplay:10.37,2013-06-29 22:27:00,
2013-06-29 17:28:00,69.0,57.6,29.75,NE,40,3.1,5.8,67,0.00,CLR,,0.42,WeatherDisplay:10.37,2013-06-29 22:28:00,
2013-06-29 17:30:00,69.1,57.3,29.75,NNE,28,5.2,12.7,66,0.00,CLR,,0.42,WeatherDisplay:10.37,2013-06-29 22:30:00,
2013-06-29 17:31:00,69.1,57.3,29.75,ENE,65,2.4,12.7,66,0.00,CLR,,0.42,WeatherDisplay:10.37,2013-06-29 22:31:00,
2013-06-29 17:32:00,69.1,57.3,29.75,NE,37,2.6,3.5,66,0.00,CLR,,0.42,WeatherDisplay:10.37,2013-06-29 22:32:00,
2013-06-29 17:33:00,69.2,57.4,29.75,North,1,4.2,8.2,66,0.00,CLR,,0.42,WeatherDisplay:10.37,2013-06-29 22:33:00,
2013-06-29 17:35:00,69.1,56.8,29.75,NNE,13,5.4,6.9,65,0.00,CLR,,0.42,WeatherDisplay:10.37,2013-06-29 22:35:00,
2013-06-29 17:37:00,68.8,56.6,29.75,North,8,8.3,9.2,65,0.00,CLR,,0.42,WeatherDisplay:10.37,2013-06-29 22:37:00,
2013-06-29 17:38:00,69.0,56.7,29.75,North,10,6.0,12.7,65,0.00,CLR,,0.42,WeatherDisplay:10.37,2013-06-29 22:38:00,
2013-06-29 17:41:00,68.5,56.3,29.75,NNE,21,6.2,11.5,65,0.00,CLR,,0.42,WeatherDisplay:10.37,2013-06-29 22:41:00,
2013-06-29 17:42:00,68.4,56.6,29.75,North,1,5.6,9.2,66,0.00,CLR,,0.42,WeatherDisplay:10.37,2013-06-29 22:42:00,
2013-06-29 17:43:00,68.4,56.6,29.75,NNE,30,5.4,9.2,66,0.00,CLR,,0.42,WeatherDisplay:10.37,2013-06-29 22:43:00,
2013-06-29 17:46:00,68.2,56.8,29.75,NE,42,4.9,8.1,67,0.00,CLR,,0.42,WeatherDisplay:10.37,2013-06-29 22:46:00,
2013-06-29 17:47:00,68.0,56.6,29.75,NE,44,5.5,8.1,67,0.00,CLR,,0.42,WeatherDisplay:10.37,2013-06-29 22:47:00,
2013-06-29 17:48:00,68.0,56.2,29.75,NNW,340,6.0,8.8,66,0.00,CLR,,0.42,WeatherDisplay:10.37,2013-06-29 22:48:00,
2013-06-29 17:49:00,68.0,56.2,29.75,ENE,71,5.4,9.2,66,0.00,CLR,,0.42,WeatherDisplay:10.37,2013-06-29 22:49:00,
2013-06-29 17:52:00,67.9,56.5,29.75,North,360,5.1,9.2,67,0.00,CLR,,0.42,WeatherDisplay:10.37,2013-06-29 22:52:00,
2013-06-29 17:53:00,67.7,56.3,29.75,North,7,5.8,8.2,67,0.00,CLR,,0.42,WeatherDisplay:10.37,2013-06-29 22:53:00,
2013-06-29 17:54:00,67.8,56.4,29.75,North,1,4.8,9.2,67,0.00,CLR,,0.42,WeatherDisplay:10.37,2013-06-29 22:54:00,
2013-06-29 17:57:00,67.7,56.3,29.75,NNE,21,4.2,7.6,67,0.00,CLR,,0.42,WeatherDisplay:10.37,2013-06-29 22:57:00,
2013-06-29 17:58:00,67.7,56.3,29.75,North,3,5.0,6.9,67,0.00,CLR,,0.42,WeatherDisplay:10.37,2013-06-29 22:58:00,
2013-06-29 17:59:00,67.6,56.7,29.75,North,11,4.1,8.1,68,0.00,CLR,,0.42,WeatherDisplay:10.37,2013-06-29 22:59:00,
2013-06-29 18:02:00,67.9,56.5,29.75,North,356,3.8,5.8,67,0.00,CLR,,0.42,WeatherDisplay:10.37,2013-06-29 23:02:00,
2013-06-29 18:03:00,67.7,56.3,29.75,NNE,17,3.8,5.8,67,0.00,CLR,,0.42,WeatherDisplay:10.37,2013-06-29 23:03:00,
2013-06-29 18:04:00,67.9,56.5,29.75,SSW,210,4.2,9.2,67,0.00,CLR,,0.42,WeatherDisplay:10.37,2013-06-29 23:04:00,
2013-06-29 18:07:00,68.1,57.1,29.75,North,3,3.7,5.8,68,0.00,CLR,,0.42,WeatherDisplay:10.37,2013-06-29 23:07:00,
2013-06-29 18:08:00,68.0,56.6,29.75,North,352,3.4,5.8,67,0.00,CLR,,0.42,WeatherDisplay:10.37,2013-06-29 23:08:00,
2013-06-29 18:09:00,68.0,57.0,29.75,NNW,339,1.1,8.1,68,0.00,CLR,,0.42,WeatherDisplay:10.37,2013-06-29 23:09:00,
2013-06-29 18:10:00,68.2,57.2,29.76,NW,318,1.6,3.5,68,0.00,CLR,,0.42,WeatherDisplay:10.37,2013-06-29 23:10:00,
2013-06-29 18:13:00,68.3,57.3,29.75,North,4,2.3,5.8,68,0.00,CLR,,0.42,WeatherDisplay:10.37,2013-06-29 23:13:00,
2013-06-29 18:14:00,68.2,57.2,29.75,NNW,330,3.4,5.8,68,0.00,CLR,,0.42,WeatherDisplay:10.37,2013-06-29 23:14:00,
2013-06-29 18:15:00,68.2,56.8,29.76,NE,35,5.5,9.2,67,0.00,CLR,,0.42,WeatherDisplay:10.37,2013-06-29 23:15:00,
2013-06-29 18:18:00,68.2,56.8,29.76,NNE,18,6.3,11.5,67,0.00,CLR,,0.42,WeatherDisplay:10.37,2013-06-29 23:18:00,
2013-06-29 18:19:00,68.3,56.9,29.76,NW,305,6.1,10.4,67,0.00,CLR,,0.42,WeatherDisplay:10.37,2013-06-29 23:19:00,
2013-06-29 18:20:00,68.3,56.9,29.76,NE,42,3.7,10.4,67,0.00,CLR,,0.42,WeatherDisplay:10.37,2013-06-29 23:20:00,
2013-06-29 18:23:00,68.4,57.0,29.76,NNE,27,5.3,7.3,67,0.00,CLR,,0.42,WeatherDisplay:10.37,2013-06-29 23:23:00,
2013-06-29 18:24:00,68.3,56.5,29.76,NNE,28,4.4,8.1,66,0.00,CLR,,0.42,WeatherDisplay:10.37,2013-06-29 23:24:00,
2013-06-29 18:25:00,68.3,56.9,29.76,West,271,3.4,6.9,67,0.00,CLR,,0.42,WeatherDisplay:10.37,2013-06-29 23:25:00,
2013-06-29 18:28:00,68.2,56.4,29.76,ENE,66,4.7,8.1,66,0.00,CLR,,0.42,WeatherDisplay:10.37,2013-06-29 23:28:00,
2013-06-29 18:29:00,68.2,56.8,29.76,North,359,3.8,10.4,67,0.00,CLR,,0.42,WeatherDisplay:10.37,2013-06-29 23:29:00,
2013-06-29 18:30:00,68.1,56.7,29.76,North,10,3.0,4.6,67,0.00,CLR,,0.42,WeatherDisplay:10.37,2013-06-29 23:30:00,
2013-06-29 18:31:00,68.1,56.7,29.76,ENE,66,3.0,4.6,67,0.00,CLR,,0.42,WeatherDisplay:10.37,2013-06-29 23:31:00,
2013-06-29 18:33:00,68.1,56.7,29.76,WNW,298,4.3,6.9,67,0.00,CLR,,0.42,WeatherDisplay:10.37,2013-06-29 23:33:00,
2013-06-29 18:34:00,68.0,56.6,29.76,ENE,78,4.3,6.9,67,0.00,CLR,,0.42,WeatherDisplay:10.37,2013-06-29 23:34:00,
2013-06-29 18:35:00,68.0,56.6,29.76,North,350,3.8,10.3,67,0.00,CLR,,0.42,WeatherDisplay:10.37,2013-06-29 23:35:00,
2013-06-29 18:36:00,67.9,56.5,29.76,NW,305,3.4,6.9,67,0.00,CLR,,0.42,WeatherDisplay:10.37,2013-06-29 23:36:00,
2013-06-29 18:39:00,67.8,56.4,29.76,NE,48,3.5,6.9,67,0.00,CLR,,0.42,WeatherDisplay:10.37,2013-06-29 23:39:00,
2013-06-29 18:40:00,67.7,56.8,29.76,NE,48,4.0,5.8,68,0.00,CLR,,0.42,WeatherDisplay:10.37,2013-06-29 23:40:00,
2013-06-29 18:41:00,67.6,56.7,29.76,NW,320,2.9,5.0,68,0.00,CLR,,0.42,WeatherDisplay:10.37,2013-06-29 23:41:00,
2013-06-29 18:44:00,67.6,56.7,29.76,East,93,2.3,4.6,68,0.00,CLR,,0.42,WeatherDisplay:10.37,2013-06-29 23:44:00,
2013-06-29 18:45:00,67.6,56.7,29.76,North,360,3.5,8.4,68,0.00,CLR,,0.42,WeatherDisplay:10.37,2013-06-29 23:45:00,
2013-06-29 18:46:00,67.5,56.6,29.76,NNE,17,6.1,8.1,68,0.00,CLR,,0.42,WeatherDisplay:10.37,2013-06-29 23:46:00,
2013-06-29 18:47:00,67.5,56.6,29.76,North,356,1.3,2.3,68,0.00,CLR,,0.42,WeatherDisplay:10.37,2013-06-29 23:47:00,
2013-06-29 18:49:00,67.5,57.0,29.76,NNW,340,1.5,3.7,69,0.00,CLR,,0.42,WeatherDisplay:10.37,2013-06-29 23:49:00,
2013-06-29 18:50:00,67.6,57.1,29.76,North,357,2.2,3.5,69,0.00,CLR,,0.42,WeatherDisplay:10.37,2013-06-29 23:50:00,
2013-06-29 18:51:00,67.5,57.0,29.76,SE,140,2.0,3.5,69,0.00,CLR,,0.42,WeatherDisplay:10.37,2013-06-29 23:51:00,
2013-06-29 18:52:00,67.5,57.0,29.76,NNE,32,1.9,2.3,69,0.00,CLR,,0.42,WeatherDisplay:10.37,2013-06-29 23:52:00,
2013-06-29 18:54:00,67.5,57.0,29.76,North,4,1.8,3.5,69,0.00,CLR,,0.42,WeatherDisplay:10.37,2013-06-29 23:54:00,
2013-06-29 18:55:00,67.4,56.9,29.77,NW,322,2.1,4.6,69,0.00,CLR,,0.42,WeatherDisplay:10.37,2013-06-29 23:55:00,
2013-06-29 18:56:00,67.5,57.0,29.77,NNE,30,3.6,5.6,69,0.00,CLR,,0.42,WeatherDisplay:10.37,2013-06-29 23:56:00,
2013-06-29 18:57:00,67.5,57.0,29.77,North,6,3.6,5.8,69,0.00,CLR,,0.42,WeatherDisplay:10.37,2013-06-29 23:57:00,
2013-06-29 18:59:00,67.5,57.0,29.76,North,10,2.4,4.6,69,0.00,CLR,,0.42,WeatherDisplay:10.37,2013-06-29 23:59:00,
2013-06-29 19:00:00,67.4,56.9,29.76,SW,227,1.8,3.5,69,0.00,CLR,,0.42,WeatherDisplay:10.37,2013-06-30 00:00:00,
2013-06-29 19:01:00,67.4,57.3,29.76,WNW,296,1.8,3.5,70,0.00,CLR,,0.42,WeatherDisplay:10.37,2013-06-30 00:01:00,
2013-06-29 19:02:00,67.5,57.4,29.77,North,360,4.3,6.9,70,0.00,CLR,,0.42,WeatherDisplay:10.37,2013-06-30 00:02:00,
2013-06-29 19:04:00,67.5,57.0,29.77,ESE,110,2.9,4.6,69,0.00,CLR,,0.42,WeatherDisplay:10.37,2013-06-30 00:04:00,
2013-06-29 19:05:00,67.4,56.9,29.76,West,275,2.9,5.8,69,0.00,CLR,,0.42,WeatherDisplay:10.37,2013-06-30 00:05:00,
2013-06-29 19:06:00,67.5,57.0,29.76,North,349,2.9,5.8,69,0.00,CLR,,0.42,WeatherDisplay:10.37,2013-06-30 00:06:00,
2013-06-29 19:07:00,67.4,56.9,29.77,West,274,4.5,6.9,69,0.00,CLR,,0.42,WeatherDisplay:10.37,2013-06-30 00:07:00,
2013-06-29 19:09:00,67.4,56.9,29.77,NW,305,1.9,5.8,69,0.00,CLR,,0.42,WeatherDisplay:10.37,2013-06-30 00:09:00,
2013-06-29 19:11:00,67.3,56.8,29.77,NW,318,5.0,5.8,69,0.00,CLR,,0.42,WeatherDisplay:10.37,2013-06-30 00:11:00,
2013-06-29 19:13:00,67.3,56.8,29.77,West,263,2.8,5.8,69,0.00,CLR,,0.42,WeatherDisplay:10.37,2013-06-30 00:13:00,
2013-06-29 19:15:00,67.3,56.8,29.77,NE,54,4.4,5.8,69,0.00,CLR,,0.42,WeatherDisplay:10.37,2013-06-30 00:15:00,
2013-06-29 19:16:00,67.3,56.8,29.77,WNW,288,3.2,5.8,69,0.00,CLR,,0.42,WeatherDisplay:10.37,2013-06-30 00:16:00,
2013-06-29 19:18:00,67.3,56.8,29.77,NNE,28,3.0,5.8,69,0.00,CLR,,0.42,WeatherDisplay:10.37,2013-06-30 00:18:00,
2013-06-29 19:20:00,67.2,56.7,29.77,ENE,64,2.4,8.1,69,0.00,CLR,,0.42,WeatherDisplay:10.37,2013-06-30 00:20:00,
2013-06-29 19:21:00,67.2,56.7,29.77,NNW,343,1.8,3.7,69,0.00,CLR,,0.42,WeatherDisplay:10.37,2013-06-30 00:21:00,
2013-06-29 19:22:00,67.2,57.1,29.77,ENE,68,1.9,3.5,70,0.00,CLR,,0.42,WeatherDisplay:10.37,2013-06-30 00:22:00,
2013-06-29 19:23:00,67.2,57.1,29.77,ENE,75,2.4,5.8,70,0.00,CLR,,0.42,WeatherDisplay:10.37,2013-06-30 00:23:00,
2013-06-29 19:26:00,67.2,56.7,29.77,ENE,59,4.8,8.1,69,0.00,CLR,,0.42,WeatherDisplay:10.37,2013-06-30 00:26:00,
2013-06-29 19:27:00,67.2,56.7,29.77,North,10,4.4,6.9,69,0.00,CLR,,0.42,WeatherDisplay:10.37,2013-06-30 00:27:00,
2013-06-29 19:29:00,67.1,56.6,29.77,NE,48,3.3,5.8,69,0.00,CLR,,0.42,WeatherDisplay:10.37,2013-06-30 00:29:00,
2013-06-29 19:31:00,67.0,56.5,29.77,North,353,4.0,6.9,69,0.00,CLR,,0.42,WeatherDisplay:10.37,2013-06-30 00:31:00,
2013-06-29 19:32:00,67.1,56.6,29.77,WNW,284,3.6,6.9,69,0.00,CLR,,0.42,WeatherDisplay:10.37,2013-06-30 00:32:00,
2013-06-29 19:34:00,67.0,56.5,29.77,North,360,5.4,8.1,69,0.00,CLR,,0.42,WeatherDisplay:10.37,2013-06-30 00:34:00,
2013-06-29 19:36:00,66.9,56.0,29.77,NW,326,4.1,8.1,68,0.00,CLR,,0.42,WeatherDisplay:10.37,2013-06-30 00:36:00,
2013-06-29 19:38:00,66.8,56.3,29.77,North,354,5.2,8.1,69,0.00,CLR,,0.42,WeatherDisplay:10.37,2013-06-30 00:38:00,
2013-06-29 19:39:00,66.7,55.8,29.77,NNW,335,2.9,8.1,68,0.00,CLR,,0.42,WeatherDisplay:10.37,2013-06-30 00:39:00,
2013-06-29 19:41:00,66.7,56.2,29.78,North,11,1.4,5.8,69,0.00,CLR,,0.42,WeatherDisplay:10.37,2013-06-30 00:41:00,
2013-06-29 19:42:00,66.7,56.2,29.78,NNE,13,0.2,4.6,69,0.00,CLR,,0.42,WeatherDisplay:10.37,2013-06-30 00:42:00,
2013-06-29 19:43:00,66.5,56.0,29.78,North,360,4.3,4.6,69,0.00,CLR,,0.42,WeatherDisplay:10.37,2013-06-30 00:43:00,
2013-06-29 19:44:00,66.4,55.9,29.78,ENE,78,1.1,3.5,69,0.00,CLR,,0.42,WeatherDisplay:10.37,2013-06-30 00:44:00,
2013-06-29 19:46:00,66.4,55.9,29.78,NNW,332,4.7,6.9,69,0.00,CLR,,0.42,WeatherDisplay:10.37,2013-06-30 00:46:00,
2013-06-29 19:47:00,66.3,55.8,29.78,East,85,2.4,5.7,69,0.00,CLR,,0.42,WeatherDisplay:10.37,2013-06-30 00:47:00,
2013-06-29 19:48:00,66.2,55.3,29.78,NE,34,4.3,4.6,68,0.00,CLR,,0.42,WeatherDisplay:10.37,2013-06-30 00:48:00,
2013-06-29 19:50:00,66.2,55.7,29.78,North,359,3.8,5.8,69,0.00,CLR,,0.42,WeatherDisplay:10.37,2013-06-30 00:50:00,
2013-06-29 19:51:00,66.2,55.7,29.78,North,360,2.9,6.1,69,0.00,CLR,,0.42,WeatherDisplay:10.37,2013-06-30 00:51:00,
2013-06-29 19:52:00,66.2,55.3,29.78,ENE,73,3.4,5.8,68,0.00,CLR,,0.42,WeatherDisplay:10.37,2013-06-30 00:52:00,
2013-06-29 19:53:00,66.2,55.7,29.78,North,360,3.5,4.6,69,0.00,CLR,,0.42,WeatherDisplay:10.37,2013-06-30 00:53:00,
2013-06-29 19:55:00,66.1,55.2,29.78,WNW,299,4.5,6.9,68,0.00,CLR,,0.42,WeatherDisplay:10.37,2013-06-30 00:55:00,
2013-06-29 19:56:00,66.0,55.1,29.78,North,4,2.5,6.9,68,0.00,CLR,,0.42,WeatherDisplay:10.37,2013-06-30 00:56:00,
2013-06-29 19:57:00,66.0,55.1,29.78,NNE,30,2.5,4.6,68,0.00,CLR,,0.42,WeatherDisplay:10.37,2013-06-30 00:57:00,
2013-06-29 19:59:00,65.9,55.0,29.78,NNW,344,2.1,6.9,68,0.00,CLR,,0.42,WeatherDisplay:10.37,2013-06-30 00:59:00,
2013-06-29 20:00:00,65.9,55.0,29.78,NE,34,1.8,3.5,68,0.00,CLR,,0.42,WeatherDisplay:10.37,2013-06-30 01:00:00,
2013-06-29 20:01:00,65.9,55.0,29.78,NNE,13,1.9,3.5,68,0.00,CLR,,0.42,WeatherDisplay:10.37,2013-06-30 01:01:00,
2013-06-29 20:02:00,65.8,54.9,29.78,North,360,1.4,5.3,68,0.00,CLR,,0.42,WeatherDisplay:10.37,2013-06-30 01:02:00,
2013-06-29 20:04:00,65.8,54.9,29.78,NE,35,3.3,5.8,68,0.00,CLR,,0.42,WeatherDisplay:10.37,2013-06-30 01:04:00,
2013-06-29 20:06:00,65.8,54.9,29.78,NW,319,3.9,5.8,68,0.00,CLR,,0.42,WeatherDisplay:10.37,2013-06-30 01:06:00,
2013-06-29 20:07:00,65.7,54.8,29.78,SE,136,1.4,2.3,68,0.00,CLR,,0.42,WeatherDisplay:10.37,2013-06-30 01:07:00,
2013-06-29 20:09:00,65.7,54.8,29.78,NNE,32,1.0,2.3,68,0.00,CLR,,0.42,WeatherDisplay:10.37,2013-06-30 01:09:00,
2013-06-29 20:11:00,65.7,54.8,29.78,WNW,284,0.4,2.3,68,0.00,CLR,,0.42,WeatherDisplay:10.37,2013-06-30 01:11:00,
2013-06-29 20:12:00,65.6,55.2,29.78,NW,325,2.1,2.1,69,0.00,CLR,,0.42,WeatherDisplay:10.37,2013-06-30 01:12:00,
2013-06-29 20:13:00,65.5,55.1,29.78,North,350,3.1,5.8,69,0.00,CLR,,0.42,WeatherDisplay:10.37,2013-06-30 01:13:00,
2013-06-29 20:14:00,65.4,55.0,29.78,NNE,27,2.9,7.0,69,0.00,CLR,,0.42,WeatherDisplay:10.37,2013-06-30 01:14:00,
2013-06-29 20:16:00,65.4,55.0,29.78,North,353,2.3,4.6,69,0.00,CLR,,0.42,WeatherDisplay:10.37,2013-06-30 01:16:00,
2013-06-29 20:17:00,65.3,54.9,29.78,NNW,340,3.5,6.0,69,0.00,CLR,,0.42,WeatherDisplay:10.37,2013-06-30 01:17:00,
2013-06-29 20:18:00,65.3,54.9,29.78,North,360,4.3,5.8,69,0.00,CLR,,0.42,WeatherDisplay:10.37,2013-06-30 01:18:00,
2013-06-29 20:19:00,65.3,54.9,29.78,NW,315,5.3,8.1,69,0.00,CLR,,0.42,WeatherDisplay:10.37,2013-06-30 01:19:00,
2013-06-29 20:21:00,65.3,55.3,29.78,NNE,20,3.1,4.6,70,0.00,CLR,,0.42,WeatherDisplay:10.37,2013-06-30 01:21:00,
2013-06-29 20:22:00,65.2,55.2,29.78,NNE,13,0.9,3.5,70,0.00,CLR,,0.42,WeatherDisplay:10.37,2013-06-30 01:22:00,
2013-06-29 20:23:00,65.2,55.2,29.78,NNW,340,2.2,4.6,70,0.00,CLR,,0.42,WeatherDisplay:10.37,2013-06-30 01:23:00,
2013-06-29 20:24:00,65.2,55.2,29.78,NW,304,2.8,5.8,70,0.00,CLR,,0.42,WeatherDisplay:10.37,2013-06-30 01:24:00,
2013-06-29 20:26:00,65.1,55.1,29.78,North,8,2.5,3.5,70,0.00,CLR,,0.42,WeatherDisplay:10.37,2013-06-30 01:26:00,
2013-06-29 20:27:00,65.2,55.6,29.78,NE,42,0.6,2.3,71,0.00,CLR,,0.42,WeatherDisplay:10.37,2013-06-30 01:27:00,
2013-06-29 20:28:00,65.2,55.6,29.78,NE,37,1.9,3.5,71,0.00,CLR,,0.42,WeatherDisplay:10.37,2013-06-30 01:28:00,
2013-06-29 20:29:00,65.0,55.4,29.78,NNW,336,0.9,1.4,71,0.00,CLR,,0.42,WeatherDisplay:10.37,2013-06-30 01:29:00,
2013-06-29 20:31:00,65.0,55.4,29.78,North,1,2.0,4.6,71,0.00,CLR,,0.42,WeatherDisplay:10.37,2013-06-30 01:31:00,
2013-06-29 20:32:00,65.0,55.4,29.78,North,8,4.1,6.9,71,0.00,CLR,,0.42,WeatherDisplay:10.37,2013-06-30 01:32:00,
2013-06-29 20:33:00,65.0,55.8,29.78,NNE,23,2.6,5.8,72,0.00,CLR,,0.42,WeatherDisplay:10.37,2013-06-30 01:33:00,
2013-06-29 20:34:00,65.0,55.8,29.78,NW,312,1.3,2.3,72,0.00,CLR,,0.42,WeatherDisplay:10.37,2013-06-30 01:34:00,
2013-06-29 20:37:00,65.0,55.8,29.79,NW,316,3.1,5.8,72,0.00,CLR,,0.42,WeatherDisplay:10.37,2013-06-30 01:37:00,
2013-06-29 20:38:00,64.9,55.7,29.78,WNW,295,1.2,4.6,72,0.00,CLR,,0.42,WeatherDisplay:10.37,2013-06-30 01:38:00,
2013-06-29 20:39:00,64.9,55.7,29.79,NNW,335,2.2,3.5,72,0.00,CLR,,0.42,WeatherDisplay:10.37,2013-06-30 01:39:00,
2013-06-29 20:40:00,64.9,55.7,29.79,NNW,343,1.9,3.5,72,0.00,CLR,,0.42,WeatherDisplay:10.37,2013-06-30 01:40:00,
2013-06-29 20:42:00,64.7,55.5,29.79,North,360,3.6,6.9,72,0.00,CLR,,0.42,WeatherDisplay:10.37,2013-06-30 01:42:00,
2013-06-29 20:43:00,64.7,55.5,29.79,NNW,346,1.5,4.6,72,0.00,CLR,,0.42,WeatherDisplay:10.37,2013-06-30 01:43:00,
2013-06-29 20:44:00,64.8,55.9,29.79,NNE,20,2.9,3.8,73,0.00,CLR,,0.42,WeatherDisplay:10.37,2013-06-30 01:44:00,
2013-06-29 20:45:00,64.7,55.8,29.79,WSW,243,1.6,4.6,73,0.00,CLR,,0.42,WeatherDisplay:10.37,2013-06-30 01:45:00,
2013-06-29 20:47:00,64.7,55.8,29.79,North,0,3.6,5.8,73,0.00,CLR,,0.42,WeatherDisplay:10.37,2013-06-30 01:47:00,
2013-06-29 20:48:00,64.6,55.7,29.79,NNW,330,2.6,4.6,73,0.00,CLR,,0.42,WeatherDisplay:10.37,2013-06-30 01:48:00,
2013-06-29 20:49:00,64.7,55.8,29.79,NW,306,4.2,6.9,73,0.00,CLR,,0.42,WeatherDisplay:10.37,2013-06-30 01:49:00,
2013-06-29 20:50:00,64.7,55.8,29.79,NNW,344,3.6,6.9,73,0.00,CLR,,0.42,WeatherDisplay:10.37,2013-06-30 01:50:00,
2013-06-29 20:52:00,64.3,55.5,29.79,NW,316,2.3,3.5,73,0.00,CLR,,0.42,WeatherDisplay:10.37,2013-06-30 01:52:00,
2013-06-29 20:53:00,64.6,56.1,29.79,NW,323,4.3,6.9,74,0.00,CLR,,0.42,WeatherDisplay:10.37,2013-06-30 01:53:00,
2013-06-29 20:55:00,64.4,55.9,29.79,WNW,298,2.1,4.6,74,0.00,CLR,,0.42,WeatherDisplay:10.37,2013-06-30 01:55:00,
2013-06-29 20:56:00,64.3,55.8,29.79,NW,320,1.0,2.3,74,0.00,CLR,,0.42,WeatherDisplay:10.37,2013-06-30 01:56:00,
2013-06-29 20:57:00,64.4,55.9,29.79,WNW,287,0.6,2.9,74,0.00,CLR,,0.42,WeatherDisplay:10.37,2013-06-30 01:57:00,
2013-06-29 20:58:00,64.3,55.8,29.79,SW,233,0.9,2.3,74,0.00,CLR,,0.42,WeatherDisplay:10.37,2013-06-30 01:58:00,
2013-06-29 21:00:00,64.0,55.5,29.79,NNE,23,2.4,3.5,74,0.00,CLR,,0.42,WeatherDisplay:10.37,2013-06-30 02:00:00,
2013-06-29 21:01:00,64.2,55.7,29.80,NNW,337,1.3,2.3,74,0.00,CLR,,0.42,WeatherDisplay:10.37,2013-06-30 02:01:00,
2013-06-29 21:02:00,64.1,55.6,29.80,NE,44,2.1,4.6,74,0.00,CLR,,0.42,WeatherDisplay:10.37,2013-06-30 02:02:00,
2013-06-29 21:03:00,64.0,55.5,29.80,ENE,78,2.5,4.6,74,0.00,CLR,,0.42,WeatherDisplay:10.37,2013-06-30 02:03:00,
2013-06-29 21:05:00,64.0,55.5,29.80,NNW,333,2.3,4.6,74,0.00,CLR,,0.42,WeatherDisplay:10.37,2013-06-30 02:05:00,
2013-06-29 21:06:00,64.0,55.5,29.80,NW,304,2.5,4.6,74,0.00,CLR,,0.42,WeatherDisplay:10.37,2013-06-30 02:06:00,
2013-06-29 21:07:00,63.9,55.4,29.80,NW,322,1.6,3.5,74,0.00,CLR,,0.42,WeatherDisplay:10.37,2013-06-30 02:07:00,
2013-06-29 21:08:00,63.8,55.7,29.80,NNW,347,2.2,3.5,75,0.00,CLR,,0.42,WeatherDisplay:10.37,2013-06-30 02:08:00,
2013-06-29 21:11:00,63.8,55.7,29.80,NW,304,2.3,3.5,75,0.00,CLR,,0.42,WeatherDisplay:10.37,2013-06-30 02:11:00,
2013-06-29 21:13:00,63.8,55.7,29.80,NW,308,3.5,5.8,75,0.00,CLR,,0.42,WeatherDisplay:10.37,2013-06-30 02:13:00,
2013-06-29 21:14:00,63.8,55.7,29.80,NNW,330,3.5,5.8,75,0.00,CLR,,0.42,WeatherDisplay:10.37,2013-06-30 02:14:00,
2013-06-29 21:16:00,63.5,55.4,29.80,WNW,292,0.4,3.5,75,0.00,CLR,,0.42,WeatherDisplay:10.37,2013-06-30 02:16:00,
2013-06-29 21:17:00,63.7,56.0,29.80,NNE,13,2.1,4.1,76,0.00,CLR,,0.42,WeatherDisplay:10.37,2013-06-30 02:17:00,
2013-06-29 21:18:00,63.6,55.9,29.80,North,357,4.2,7.3,76,0.00,CLR,,0.42,WeatherDisplay:10.37,2013-06-30 02:18:00,
2013-06-29 21:19:00,63.7,56.0,29.80,NW,309,3.0,9.2,76,0.00,CLR,,0.42,WeatherDisplay:10.37,2013-06-30 02:19:00,
2013-06-29 21:21:00,63.6,55.9,29.80,NNW,347,0.7,5.8,76,0.00,CLR,,0.42,WeatherDisplay:10.37,2013-06-30 02:21:00,
2013-06-29 21:22:00,63.4,55.7,29.80,North,354,0.4,1.7,76,0.00,CLR,,0.42,WeatherDisplay:10.37,2013-06-30 02:22:00,
2013-06-29 21:23:00,63.4,55.7,29.80,NNE,18,1.9,4.6,76,0.00,CLR,,0.42,WeatherDisplay:10.37,2013-06-30 02:23:00,
2013-06-29 21:24:00,63.4,55.7,29.80,North,11,2.2,4.6,76,0.00,CLR,,0.42,WeatherDisplay:10.37,2013-06-30 02:24:00,
2013-06-29 21:26:00,63.4,55.7,29.80,NW,319,3.3,6.9,76,0.00,CLR,,0.42,WeatherDisplay:10.37,2013-06-30 02:26:00,
2013-06-29 21:27:00,63.4,55.7,29.80,North,360,3.4,5.8,76,0.00,CLR,,0.42,WeatherDisplay:10.37,2013-06-30 02:27:00,
2013-06-29 21:28:00,63.3,55.6,29.80,WNW,296,3.6,6.0,76,0.00,CLR,,0.42,WeatherDisplay:10.37,2013-06-30 02:28:00,
2013-06-29 21:29:00,63.3,55.6,29.80,North,7,3.1,6.9,76,0.00,CLR,,0.42,WeatherDisplay:10.37,2013-06-30 02:29:00,
2013-06-29 21:31:00,63.2,55.9,29.80,NW,322,2.8,4.6,77,0.00,CLR,,0.42,WeatherDisplay:10.37,2013-06-30 02:31:00,
2013-06-29 21:32:00,63.1,55.8,29.80,NNE,21,3.8,6.9,77,0.00,CLR,,0.42,WeatherDisplay:10.37,2013-06-30 02:32:00,
2013-06-29 21:33:00,63.1,55.8,29.80,ENE,73,2.8,5.8,77,0.00,CLR,,0.42,WeatherDisplay:10.37,2013-06-30 02:33:00,
2013-06-29 21:34:00,63.1,55.8,29.80,NNE,20,3.4,5.8,77,0.00,CLR,,0.42,WeatherDisplay:10.37,2013-06-30 02:34:00,
2013-06-29 21:36:00,63.0,55.7,29.80,NE,42,2.5,4.6,77,0.00,CLR,,0.42,WeatherDisplay:10.37,2013-06-30 02:36:00,
2013-06-29 21:37:00,63.0,55.7,29.80,NNW,346,2.5,4.6,77,0.00,CLR,,0.42,WeatherDisplay:10.37,2013-06-30 02:37:00,
2013-06-29 21:38:00,62.9,55.6,29.80,NNW,329,1.9,4.6,77,0.00,CLR,,0.42,WeatherDisplay:10.37,2013-06-30 02:38:00,
2013-06-29 21:39:00,63.0,55.7,29.80,NW,306,1.6,2.4,77,0.00,CLR,,0.42,WeatherDisplay:10.37,2013-06-30 02:39:00,
2013-06-29 21:42:00,62.8,55.8,29.80,NW,325,2.4,2.6,78,0.00,CLR,,0.42,WeatherDisplay:10.37,2013-06-30 02:42:00,
2013-06-29 21:43:00,62.8,55.8,29.80,WNW,299,0.9,3.5,78,0.00,CLR,,0.42,WeatherDisplay:10.37,2013-06-30 02:43:00,
2013-06-29 21:44:00,62.8,55.8,29.80,WNW,288,1.5,3.5,78,0.00,CLR,,0.42,WeatherDisplay:10.37,2013-06-30 02:44:00,
2013-06-29 21:47:00,62.6,55.6,29.81,NNE,28,1.0,3.5,78,0.00,CLR,,0.42,WeatherDisplay:10.37,2013-06-30 02:47:00,
2013-06-29 21:48:00,62.7,55.7,29.81,SSE,147,1.1,2.3,78,0.00,CLR,,0.42,WeatherDisplay:10.37,2013-06-30 02:48:00,
2013-06-29 21:50:00,62.7,55.7,29.81,ENE,66,1.9,4.6,78,0.00,CLR,,0.42,WeatherDisplay:10.37,2013-06-30 02:50:00,
2013-06-29 21:52:00,62.7,55.7,29.81,NNW,337,2.2,4.6,78,0.00,CLR,,0.42,WeatherDisplay:10.37,2013-06-30 02:52:00,
2013-06-29 21:53:00,62.6,55.6,29.81,ENE,59,1.0,4.6,78,0.00,CLR,,0.42,WeatherDisplay:10.37,2013-06-30 02:53:00,
2013-06-29 21:54:00,62.6,56.0,29.81,NE,55,2.3,5.8,79,0.00,CLR,,0.42,WeatherDisplay:10.37,2013-06-30 02:54:00,
2013-06-29 21:55:00,62.5,55.9,29.81,NNW,342,2.5,5.8,79,0.00,CLR,,0.42,WeatherDisplay:10.37,2013-06-30 02:55:00,
2013-06-29 21:57:00,62.5,55.9,29.81,NW,319,1.7,4.6,79,0.00,CLR,,0.42,WeatherDisplay:10.37,2013-06-30 02:57:00,
2013-06-29 21:58:00,62.5,55.9,29.81,East,95,1.7,4.6,79,0.00,CLR,,0.42,WeatherDisplay:10.37,2013-06-30 02:58:00,
2013-06-29 21:59:00,62.4,55.8,29.81,SW,215,0.2,4.6,79,0.00,CLR,,0.42,WeatherDisplay:10.37,2013-06-30 02:59:00,
2013-06-29 22:01:00,62.5,55.9,29.81,NNE,16,1.3,5.8,79,0.00,CLR,,0.42,WeatherDisplay:10.37,2013-06-30 03:01:00,
2013-06-29 22:02:00,62.4,55.8,29.81,NNE,21,2.6,5.8,79,0.00,CLR,,0.42,WeatherDisplay:10.37,2013-06-30 03:02:00,
2013-06-29 22:03:00,62.4,55.8,29.81,ENE,76,1.5,3.5,79,0.00,CLR,,0.42,WeatherDisplay:10.37,2013-06-30 03:03:00,
2013-06-29 22:04:00,62.4,55.8,29.81,NNE,21,2.3,3.5,79,0.00,CLR,,0.42,WeatherDisplay:10.37,2013-06-30 03:04:00,
2013-06-29 22:05:00,62.5,55.9,29.81,NE,44,2.8,4.6,79,0.00,CLR,,0.42,WeatherDisplay:10.37,2013-06-30 03:05:00,
2013-06-29 22:06:00,62.3,55.7,29.81,ENE,66,2.3,4.6,79,0.00,CLR,,0.42,WeatherDisplay:10.37,2013-06-30 03:06:00,
2013-06-29 22:08:00,62.5,55.9,29.81,North,357,2.6,3.5,79,0.00,CLR,,0.42,WeatherDisplay:10.37,2013-06-30 03:08:00,
2013-06-29 22:09:00,62.5,55.9,29.81,North,0,2.2,3.5,79,0.00,CLR,,0.42,WeatherDisplay:10.37,2013-06-30 03:09:00,
2013-06-29 22:10:00,62.5,55.9,29.81,NE,45,3.2,4.4,79,0.00,CLR,,0.42,WeatherDisplay:10.37,2013-06-30 03:10:00,
2013-06-29 22:12:00,62.5,55.9,29.81,ENE,68,1.6,4.6,79,0.00,CLR,,0.42,WeatherDisplay:10.37,2013-06-30 03:12:00,
2013-06-29 22:13:00,62.3,55.7,29.81,North,354,2.0,2.7,79,0.00,CLR,,0.42,WeatherDisplay:10.37,2013-06-30 03:13:00,
2013-06-29 22:14:00,62.4,55.8,29.81,NNE,14,3.2,4.6,79,0.00,CLR,,0.42,WeatherDisplay:10.37,2013-06-30 03:14:00,
2013-06-29 22:15:00,62.3,55.7,29.81,North,360,3.9,4.6,79,0.00,CLR,,0.42,WeatherDisplay:10.37,2013-06-30 03:15:00,
2013-06-29 22:17:00,62.5,55.9,29.82,NNW,343,3.3,3.5,79,0.00,CLR,,0.42,WeatherDisplay:10.37,2013-06-30 03:17:00,
2013-06-29 22:18:00,62.5,55.9,29.82,NW,315,1.9,3.5,79,0.00,CLR,,0.42,WeatherDisplay:10.37,2013-06-30 03:18:00,
2013-06-29 22:19:00,62.5,55.9,29.82,NNW,332,2.0,3.5,79,0.00,CLR,,0.42,WeatherDisplay:10.37,2013-06-30 03:19:00,
2013-06-29 22:20:00,62.3,55.7,29.82,East,90,0.8,2.3,79,0.00,CLR,,0.42,WeatherDisplay:10.37,2013-06-30 03:20:00,
2013-06-29 22:22:00,62.5,55.9,29.82,WNW,299,1.4,2.9,79,0.00,CLR,,0.42,WeatherDisplay:10.37,2013-06-30 03:22:00,
2013-06-29 22:23:00,62.4,55.8,29.82,NNW,332,2.7,4.6,79,0.00,CLR,,0.42,WeatherDisplay:10.37,2013-06-30 03:23:00,
2013-06-29 22:24:00,62.5,55.9,29.82,SW,234,2.9,4.6,79,0.00,CLR,,0.42,WeatherDisplay:10.37,2013-06-30 03:24:00,
2013-06-29 22:25:00,62.5,55.9,29.82,NNW,344,2.4,4.6,79,0.00,CLR,,0.42,WeatherDisplay:10.37,2013-06-30 03:25:00,
2013-06-29 22:27:00,62.3,56.0,29.82,ENE,65,1.6,4.6,80,0.00,CLR,,0.42,WeatherDisplay:10.37,2013-06-30 03:27:00,
2013-06-29 22:28:00,62.5,56.2,29.82,SSE,165,1.0,2.3,80,0.00,CLR,,0.42,WeatherDisplay:10.37,2013-06-30 03:28:00,
2013-06-29 22:29:00,62.4,56.1,29.82,SSE,165,0.6,2.3,80,0.00,CLR,,0.42,WeatherDisplay:10.37,2013-06-30 03:29:00,
2013-06-29 22:30:00,62.5,56.2,29.82,SSE,165,0.0,0.0,80,0.00,CLR,,0.42,WeatherDisplay:10.37,2013-06-30 03:30:00,
2013-06-29 22:33:00,62.5,56.2,29.82,ENE,71,0.5,2.3,80,0.00,CLR,,0.42,WeatherDisplay:10.37,2013-06-30 03:33:00,
2013-06-29 22:34:00,62.3,56.0,29.82,North,0,1.3,5.2,80,0.00,CLR,,0.42,WeatherDisplay:10.37,2013-06-30 03:34:00,
2013-06-29 22:35:00,62.4,56.1,29.82,ENE,58,1.9,4.6,80,0.00,CLR,,0.42,WeatherDisplay:10.37,2013-06-30 03:35:00,
2013-06-29 22:38:00,62.3,56.0,29.82,NE,56,3.6,5.8,80,0.00,CLR,,0.42,WeatherDisplay:10.37,2013-06-30 03:38:00,
2013-06-29 22:39:00,62.4,56.1,29.82,NE,56,2.6,3.5,80,0.00,CLR,,0.42,WeatherDisplay:10.37,2013-06-30 03:39:00,
2013-06-29 22:40:00,62.3,56.0,29.82,NNE,23,1.8,4.6,80,0.00,CLR,,0.42,WeatherDisplay:10.37,2013-06-30 03:40:00,
2013-06-29 22:41:00,62.3,56.0,29.82,North,356,2.1,3.5,80,0.00,CLR,,0.42,WeatherDisplay:10.37,2013-06-30 03:41:00,
2013-06-29 22:43:00,62.3,56.0,29.83,North,8,2.5,4.6,80,0.00,CLR,,0.42,WeatherDisplay:10.37,2013-06-30 03:43:00,
2013-06-29 22:45:00,62.3,56.0,29.82,ENE,58,3.4,6.9,80,0.00,CLR,,0.42,WeatherDisplay:10.37,2013-06-30 03:45:00,
2013-06-29 22:46:00,62.2,56.3,29.82,NNE,18,2.2,4.6,81,0.00,CLR,,0.42,WeatherDisplay:10.37,2013-06-30 03:46:00,
2013-06-29 22:48:00,62.3,56.0,29.83,NNE,21,0.9,3.2,80,0.00,CLR,,0.42,WeatherDisplay:10.37,2013-06-30 03:48:00,
2013-06-29 22:50:00,62.4,56.1,29.83,North,352,1.3,3.5,80,0.00,CLR,,0.42,WeatherDisplay:10.37,2013-06-30 03:50:00,
2013-06-29 22:51:00,62.5,56.2,29.83,North,356,2.5,3.5,80,0.00,CLR,,0.42,WeatherDisplay:10.37,2013-06-30 03:51:00,
2013-06-29 22:53:00,62.4,56.1,29.83,ENE,68,3.2,4.6,80,0.00,CLR,,0.42,WeatherDisplay:10.37,2013-06-30 03:53:00,
2013-06-29 22:55:00,62.3,56.0,29.82,NNE,18,3.3,4.6,80,0.00,CLR,,0.42,WeatherDisplay:10.37,2013-06-30 03:55:00,
2013-06-29 22:56:00,62.4,56.1,29.82,NE,38,2.4,4.6,80,0.00,CLR,,0.42,WeatherDisplay:10.37,2013-06-30 03:56:00,
2013-06-29 22:59:00,62.3,56.0,29.83,NNE,21,2.0,3.5,80,0.00,CLR,,0.42,WeatherDisplay:10.37,2013-06-30 03:59:00,
2013-06-29 23:00:00,62.4,56.1,29.83,NNE,30,2.8,4.6,80,0.00,CLR,,0.42,WeatherDisplay:10.37,2013-06-30 04:00:00,
2013-06-29 23:01:00,62.3,56.0,29.83,East,85,2.4,4.6,80,0.00,CLR,,0.42,WeatherDisplay:10.37,2013-06-30 04:01:00,
2013-06-29 23:06:00,62.2,56.3,29.83,NE,40,2.6,4.6,81,0.00,CLR,,0.42,WeatherDisplay:10.37,2013-06-30 04:06:00,
2013-06-29 23:11:00,62.1,56.2,29.83,WNW,285,1.1,4.6,81,0.00,CLR,,0.42,WeatherDisplay:10.37,2013-06-30 04:11:00,
2013-06-29 23:12:00,62.2,56.3,29.83,NE,55,4.7,6.9,81,0.00,CLR,,0.42,WeatherDisplay:10.37,2013-06-30 04:12:00,
2013-06-29 23:16:00,62.0,56.1,29.83,NW,319,2.7,3.5,81,0.00,CLR,,0.42,WeatherDisplay:10.37,2013-06-30 04:16:00,
2013-06-29 23:17:00,62.1,56.2,29.83,NE,34,2.3,3.5,81,0.00,CLR,,0.42,WeatherDisplay:10.37,2013-06-30 04:17:00,
2013-06-29 23:21:00,62.0,56.1,29.83,NE,41,1.9,3.5,81,0.00,CLR,,0.42,WeatherDisplay:10.37,2013-06-30 04:21:00,
2013-06-29 23:22:00,62.0,56.1,29.83,NNE,13,2.5,3.9,81,0.00,CLR,,0.42,WeatherDisplay:10.37,2013-06-30 04:22:00,
2013-06-29 23:26:00,61.9,56.0,29.83,NNE,17,3.7,6.9,81,0.00,CLR,,0.42,WeatherDisplay:10.37,2013-06-30 04:26:00,
2013-06-29 23:27:00,62.0,56.1,29.83,West,280,3.4,6.9,81,0.00,CLR,,0.42,WeatherDisplay:10.37,2013-06-30 04:27:00,
2013-06-29 23:31:00,61.9,56.0,29.83,NE,41,3.7,8.1,81,0.00,CLR,,0.42,WeatherDisplay:10.37,2013-06-30 04:31:00,
2013-06-29 23:32:00,61.8,55.9,29.83,East,95,5.4,5.8,81,0.00,CLR,,0.42,WeatherDisplay:10.37,2013-06-30 04:32:00,
2013-06-29 23:36:00,61.9,55.7,29.83,ENE,69,3.8,6.9,80,0.00,CLR,,0.42,WeatherDisplay:10.37,2013-06-30 04:36:00,
2013-06-29 23:37:00,61.9,55.7,29.83,NNE,18,4.4,5.8,80,0.00,CLR,,0.42,WeatherDisplay:10.37,2013-06-30 04:37:00,
2013-06-29 23:38:00,61.9,55.7,29.83,NE,35,2.5,6.9,80,0.00,CLR,,0.42,WeatherDisplay:10.37,2013-06-30 04:38:00,
2013-06-29 23:41:00,61.9,55.7,29.83,NE,37,4.2,5.8,80,0.00,CLR,,0.42,WeatherDisplay:10.37,2013-06-30 04:41:00,
2013-06-29 23:42:00,61.9,55.7,29.83,ENE,73,2.8,4.6,80,0.00,CLR,,0.42,WeatherDisplay:10.37,2013-06-30 04:42:00,
2013-06-29 23:43:00,61.9,55.7,29.83,ENE,64,3.8,5.8,80,0.00,CLR,,0.42,WeatherDisplay:10.37,2013-06-30 04:43:00,
2013-06-29 23:46:00,61.9,55.3,29.83,ESE,112,2.0,4.6,79,0.00,CLR,,0.42,WeatherDisplay:10.37,2013-06-30 04:46:00,
2013-06-29 23:47:00,61.8,55.2,29.83,NE,45,1.3,2.3,79,0.00,CLR,,0.42,WeatherDisplay:10.37,2013-06-30 04:47:00,
2013-06-29 23:48:00,61.8,55.2,29.83,NE,55,2.0,3.5,79,0.00,CLR,,0.42,WeatherDisplay:10.37,2013-06-30 04:48:00,
2013-06-29 23:52:00,61.8,55.2,29.84,NE,44,2.5,3.5,79,0.00,CLR,,0.42,WeatherDisplay:10.37,2013-06-30 04:52:00,
2013-06-29 23:53:00,61.7,55.1,29.84,North,8,2.1,4.6,79,0.00,CLR,,0.42,WeatherDisplay:10.37,2013-06-30 04:53:00,
2013-06-29 23:57:00,61.7,55.1,29.84,North,0,1.5,2.3,79,0.00,CLR,,0.42,WeatherDisplay:10.37,2013-06-30 04:57:00,
2013-06-29 23:58:00,61.6,55.0,29.84,ENE,73,1.5,2.3,79,0.00,CLR,,0.42,WeatherDisplay:10.37,2013-06-30 04:58:00,